GEFSSGP_con_probscp_150.txt.gz
Probability
0 0 0 0 0 0 0 1 1 1 0 1 1 4 7 8 6 4 8 16 18 11 8 9 9 6 4 3 3 3 2 2 1 0 0 0 0 0 0 0 0 0 0 0 0 0 0 0 0
0 0 0 0 0 0 0 2 2 1 1 2 4 7 9 8 6 6 11 18 18 11 9 11 11 8 6 4 3 2 1 1 0 0 0 0 0 0 0 0 0 0 0 0 0 0 0 0 0
0 0 0 0 0 0 1 2 2 1 2 4 8 11 11 10 9 11 16 21 19 13 11 15 16 13 9 7 5 3 3 2 2 1 0 0 0 0 0 0 0 0 0 0 0 0 0 0 0
0 0 0 0 0 0 1 2 1 1 2 6 11 13 12 11 13 16 18 19 17 13 12 17 21 20 16 13 10 7 7 6 4 3 2 1 1 1 1 1 1 1 0 0 0 0 0 0 1
0 0 0 0 0 1 1 0 0 1 4 8 13 15 13 12 14 15 15 14 13 14 14 19 25 27 23 19 13 10 8 7 6 4 4 5 4 3 3 3 2 1 0 0 1 1 1 1 2
0 0 0 0 0 0 0 0 1 4 7 10 14 17 15 11 10 11 12 12 14 17 19 21 25 27 26 22 14 11 9 8 7 5 5 7 7 6 5 3 3 2 0 1 2 2 2 3 3
0 0 0 0 0 0 0 1 3 8 13 13 16 20 18 12 9 10 13 14 16 18 18 18 18 20 22 22 18 15 14 12 10 6 4 5 7 6 4 2 2 2 1 1 2 3 3 3 3
0 0 0 0 0 0 1 4 7 14 20 21 24 27 24 17 13 16 20 22 21 19 18 17 16 15 16 19 20 19 17 15 11 7 4 4 5 6 4 3 4 3 1 1 2 3 3 3 3
0 0 0 0 0 0 2 7 11 17 24 30 36 38 32 25 21 23 28 31 31 26 22 21 20 17 15 18 20 18 15 13 11 9 6 5 6 7 6 7 8 5 1 0 1 1 2 3 3
0 0 0 0 0 0 3 7 9 14 23 33 41 43 38 31 28 29 33 35 35 30 26 26 27 24 21 22 23 19 15 15 14 14 12 8 7 9 10 13 13 7 3 1 1 1 2 3 3
0 0 0 0 1 2 5 8 12 15 22 31 40 46 44 36 32 34 35 33 30 27 26 29 31 31 31 30 27 23 22 22 21 20 19 15 12 11 14 17 14 9 5 3 3 4 3 3 3
0 0 0 0 2 4 7 13 21 25 28 34 41 49 51 42 37 38 35 30 27 26 26 28 32 37 40 39 34 31 30 28 24 23 22 19 15 14 16 17 14 10 6 5 5 6 5 5 5
0 0 0 1 2 5 9 17 25 29 31 37 42 46 49 45 39 37 34 31 29 28 28 30 34 38 41 42 40 36 33 28 23 21 21 17 14 14 18 20 17 12 10 10 10 9 9 9 8
0 0 0 1 2 4 9 16 23 27 31 38 41 41 42 41 37 34 33 32 32 32 32 33 34 36 38 38 36 32 28 25 21 18 17 14 13 17 22 24 22 18 16 16 14 12 12 11 9
0 0 0 1 1 2 6 14 21 25 30 35 37 38 38 38 37 35 34 35 35 37 37 35 33 35 37 35 29 24 22 21 21 20 18 16 15 18 22 24 22 20 20 19 15 13 12 10 9
0 0 0 0 0 1 4 12 20 23 26 31 34 34 34 35 36 35 35 36 38 41 42 39 36 37 37 34 27 22 20 22 23 22 21 19 16 14 16 19 20 20 20 18 15 14 13 11 10
0 0 0 0 0 0 3 12 20 22 25 31 34 32 29 28 30 30 30 33 37 40 43 41 38 37 36 33 29 25 24 25 23 20 19 19 15 10 10 13 16 19 20 17 15 16 15 12 11
0 0 0 0 0 1 5 14 20 21 25 32 34 31 25 24 25 25 23 26 31 35 37 37 35 33 33 31 30 28 26 25 21 17 18 19 16 10 8 10 12 17 20 18 14 14 14 11 9
0 0 0 0 1 3 10 18 21 21 25 30 32 30 26 24 24 23 21 21 25 29 29 28 27 28 29 28 27 25 24 22 18 16 18 19 17 13 11 11 12 16 18 18 15 12 11 10 8
0 0 0 0 2 4 10 18 22 24 26 28 30 30 29 27 27 25 23 21 22 24 23 21 21 22 25 24 22 20 19 17 16 16 16 17 16 15 13 14 16 17 17 17 15 12 10 7 6
0 0 0 0 1 2 6 14 23 26 26 26 28 30 30 30 30 28 24 21 20 20 20 20 19 19 20 20 18 16 15 14 13 14 14 14 13 14 14 15 17 18 17 16 13 10 7 5 4
0 0 0 0 0 1 2 8 20 26 24 23 27 32 32 31 33 31 27 22 19 19 20 20 19 17 17 16 15 14 13 11 10 11 12 11 11 12 14 14 15 16 15 14 12 8 6 4 3
0 0 0 0 0 0 0 4 13 21 22 20 25 31 32 32 33 32 28 23 19 18 18 18 17 16 15 14 13 12 11 9 8 8 9 10 10 11 11 12 12 12 12 11 10 8 6 4 3
0 0 0 0 0 0 1 3 8 15 17 17 22 29 32 32 31 29 27 23 20 18 17 16 16 16 15 13 12 11 10 8 7 7 9 9 9 9 9 8 8 8 8 7 7 7 6 4 3
0 0 0 0 0 0 1 4 9 14 14 17 23 28 31 32 29 25 23 21 19 17 16 16 16 16 15 14 13 11 10 9 8 8 8 7 7 6 6 5 4 4 3 3 4 6 5 4 3
0 0 0 0 0 0 1 6 12 16 17 19 24 27 29 29 26 22 21 20 18 16 16 16 16 16 16 15 14 13 11 10 9 8 7 6 4 3 3 2 1 1 1 1 2 3 3 2 1
0 0 0 0 0 0 1 5 11 15 19 21 22 25 27 26 23 20 19 19 17 15 16 16 16 15 14 13 13 12 11 9 8 8 6 4 2 1 1 0 0 0 0 0 1 1 2 1 0
0 0 0 0 0 0 0 3 8 13 16 18 19 21 23 23 22 21 20 19 18 16 15 15 14 13 10 9 9 9 7 5 4 4 3 2 1 0 0 0 0 0 0 0 0 0 0 0 0
0 0 0 0 0 0 0 2 6 10 12 13 15 18 21 22 23 23 21 19 19 17 14 13 12 9 7 6 7 5 3 1 1 1 1 0 0 0 0 0 0 0 0 0 0 0 0 0 0
0 0 0 0 0 0 0 2 6 9 11 12 13 16 21 23 24 24 21 19 19 16 14 12 10 8 6 6 6 4 2 0 0 0 0 0 0 0 0 0 0 0 0 0 0 0 0 0 0

GEFSSGP_con_probscp_156.txt.gz
Probability
0 0 0 0 0 0 0 0 0 0 1 5 10 12 11 8 4 1 0 1 4 5 5 4 5 4 3 4 6 6 5 3 2 2 5 6 7 7 5 3 2 1 0 0 0 0 0 0 0
0 0 0 0 0 0 0 0 1 2 4 8 12 15 14 11 6 2 1 2 5 7 6 6 7 6 4 4 5 6 5 4 4 4 6 6 7 6 6 5 3 2 1 0 0 0 0 0 0
0 0 0 0 0 0 0 1 5 8 12 14 16 17 16 11 7 3 1 3 7 9 8 9 11 10 7 7 9 9 8 8 8 7 6 6 6 7 7 6 5 3 1 0 0 0 0 0 0
0 0 0 0 0 0 0 3 9 15 19 19 18 17 13 8 6 4 3 7 12 12 9 11 15 13 11 13 15 13 12 12 11 9 6 5 6 6 7 7 5 3 1 0 0 0 0 0 0
0 0 0 0 0 0 1 6 14 19 20 19 18 16 11 8 8 8 7 11 16 16 13 12 14 14 14 16 16 15 14 14 13 10 5 3 5 6 6 6 5 3 1 0 0 0 0 0 0
0 0 0 0 0 1 4 10 16 18 18 16 16 16 13 10 12 11 9 12 16 18 16 14 14 15 16 15 15 15 16 16 13 9 5 4 5 5 6 5 5 3 1 0 0 0 0 0 0
0 0 0 0 0 1 6 13 17 17 16 15 16 16 13 11 11 10 8 9 12 15 15 13 11 13 16 16 16 17 18 17 14 9 6 5 4 4 5 6 6 5 3 2 1 1 1 1 1
0 0 0 0 0 3 9 16 19 18 16 16 17 15 13 10 11 11 10 9 8 10 10 8 6 7 10 13 15 16 16 16 14 12 9 6 5 5 6 7 6 5 4 3 2 2 2 2 2
0 0 0 1 2 5 12 19 20 20 21 23 22 20 16 14 15 20 20 14 9 8 6 3 1 2 5 8 10 11 10 11 12 12 11 9 7 6 6 6 6 4 3 2 3 3 3 2 2
0 0 1 2 4 8 15 22 22 21 24 28 30 28 24 22 24 29 28 20 14 11 8 4 2 2 4 6 7 5 5 6 7 9 10 10 8 6 4 4 5 3 2 1 2 2 1 1 1
1 1 2 3 7 12 20 26 25 23 23 27 33 34 30 28 30 31 28 22 19 16 12 8 4 3 4 5 5 4 3 3 4 6 8 7 5 5 4 3 3 2 1 0 1 1 0 0 0
2 2 3 4 9 15 23 28 28 25 25 28 34 35 32 29 29 28 25 23 21 19 15 11 6 4 4 4 4 4 4 3 2 3 4 3 2 3 3 3 3 2 1 0 0 0 0 0 0
2 3 3 5 10 17 23 26 25 26 30 35 37 35 31 28 27 27 26 24 22 21 18 12 7 5 4 4 4 4 4 3 1 1 1 1 0 1 3 3 3 2 1 0 0 0 0 0 0
3 3 3 5 10 16 22 24 23 24 32 38 38 34 30 27 26 27 27 25 23 22 19 13 8 6 6 6 4 3 3 2 1 0 0 0 0 1 2 2 1 1 1 0 0 0 0 0 0
4 4 4 5 7 12 18 21 20 22 30 36 36 33 29 26 25 26 26 25 23 21 16 13 10 8 7 5 3 1 1 1 1 0 0 1 1 1 1 2 1 0 0 0 0 0 0 0 0
3 3 4 4 4 7 12 17 18 21 28 31 31 30 27 25 25 25 24 23 21 17 12 11 11 8 5 3 1 0 0 0 0 0 1 2 3 2 2 1 0 0 0 1 1 1 0 0 0
2 2 3 3 3 5 12 17 19 22 27 26 24 23 23 23 24 23 22 20 17 13 10 11 11 7 4 2 1 0 0 0 1 1 1 3 4 4 2 1 1 1 1 1 2 1 0 0 0
1 1 2 2 1 5 15 22 22 24 25 22 18 17 19 20 21 20 20 18 13 11 11 13 11 7 5 3 2 1 1 1 1 2 3 4 4 3 2 1 2 2 1 1 2 1 0 0 0
0 0 0 0 1 6 16 22 22 21 21 19 16 16 17 19 19 19 18 16 13 12 14 14 12 9 8 7 5 3 2 1 1 2 4 4 4 3 3 2 2 2 1 1 1 1 0 0 0
0 0 0 0 1 7 14 18 18 17 17 17 15 15 17 20 21 19 16 13 13 14 15 15 12 11 11 10 9 6 3 2 2 3 4 4 4 5 5 3 1 1 2 2 1 1 0 0 0
0 0 0 0 2 6 11 14 15 15 15 15 13 14 17 20 21 19 14 12 13 15 15 14 12 12 12 12 10 8 5 5 4 4 3 3 4 6 6 3 2 2 2 2 2 2 1 0 1
0 0 0 0 1 4 6 8 11 15 16 16 16 15 15 18 19 17 15 14 14 15 14 13 11 11 12 11 10 9 7 6 6 4 3 4 5 6 6 4 3 2 2 1 1 2 2 1 1
0 0 0 0 0 1 2 2 6 12 16 19 20 16 13 15 16 15 14 15 15 14 13 12 11 11 10 10 10 9 8 7 6 4 4 5 6 6 5 4 3 1 1 0 0 1 2 2 1
0 0 0 0 0 0 0 0 2 7 13 20 20 14 11 11 12 11 12 13 13 12 12 12 11 10 9 9 9 9 8 6 5 4 5 6 5 4 3 3 1 0 0 0 0 1 2 2 1
0 0 0 0 0 0 0 0 0 3 9 15 16 11 8 8 8 8 10 12 11 10 10 11 10 8 7 8 8 8 6 4 3 3 4 4 4 3 1 1 0 0 0 0 0 0 1 1 1
0 0 0 0 0 0 0 0 1 4 8 12 13 11 8 6 7 7 8 10 9 8 8 9 8 7 6 6 6 5 4 2 2 2 3 3 3 2 1 0 0 0 0 0 0 0 0 1 1
0 0 0 0 0 0 0 0 2 5 8 10 12 12 9 7 8 7 6 6 6 6 7 8 7 6 6 5 3 1 1 1 1 0 1 2 2 1 0 0 0 0 0 0 0 0 0 0 0
0 0 0 0 0 0 0 0 1 3 5 8 9 9 9 9 9 7 5 4 5 6 7 7 5 4 4 3 1 0 0 0 0 0 0 1 1 0 0 0 0 0 0 0 0 0 0 0 0
0 0 0 0 0 0 0 0 0 0 2 4 5 5 6 8 8 6 6 6 6 6 6 5 5 4 2 1 0 0 0 0 0 0 0 0 0 0 0 0 0 0 0 0 0 0 0 0 0
0 0 0 0 0 0 0 0 0 0 1 3 4 4 5 6 6 6 6 6 6 5 6 6 5 4 2 0 0 0 0 0 0 0 0 0 0 0 0 0 0 0 0 0 0 0 0 0 0

GEFSSGP_con_probscp_162.txt.gz
Probability
0 0 0 0 0 0 0 0 0 0 0 0 0 0 1 0 0 1 1 2 2 1 0 0 1 3 5 6 7 8 9 10 11 12 10 9 9 8 8 7 6 4 2 1 0 0 0 0 0
0 0 0 0 0 0 0 0 0 0 0 0 0 0 1 1 1 1 2 2 1 1 0 1 3 5 7 9 9 9 10 12 14 13 11 11 12 11 9 7 5 3 2 1 0 0 0 0 0
0 0 0 0 0 0 0 0 0 1 2 2 1 1 2 2 2 3 4 4 3 2 2 4 6 8 9 12 13 13 13 15 15 14 13 13 13 13 11 8 4 3 2 1 0 0 0 0 0
0 0 0 0 0 0 0 0 1 2 4 4 3 2 3 3 4 5 7 7 6 4 4 7 9 9 11 14 15 18 19 18 17 17 16 15 14 14 12 9 5 2 1 0 1 1 1 0 0
0 0 0 0 0 0 0 1 1 2 3 4 4 4 4 4 5 7 8 8 6 5 6 9 11 11 13 15 17 20 24 23 21 20 19 18 17 15 12 9 7 4 2 1 2 3 3 2 2
0 0 0 0 0 1 2 2 2 1 1 2 3 4 3 4 6 8 8 8 7 7 8 10 12 12 14 17 18 20 23 24 24 22 21 19 19 17 13 10 8 6 5 4 4 5 6 6 5
0 0 0 0 1 2 4 5 5 4 2 1 1 2 2 3 5 7 8 10 10 9 9 10 11 12 14 17 20 21 22 23 22 21 18 16 15 15 14 12 10 9 7 5 4 5 6 6 5
0 0 1 1 1 3 6 8 8 6 3 1 0 1 3 6 7 8 10 13 12 10 8 8 9 10 11 14 16 17 17 18 17 15 15 12 8 9 13 14 14 12 8 3 2 2 2 3 2
0 1 2 1 1 2 6 8 8 5 4 3 3 4 9 14 13 11 12 14 13 10 7 7 7 8 9 9 9 9 9 10 9 10 12 10 6 6 9 13 13 11 7 3 1 1 0 0 1
0 1 2 1 0 3 7 7 4 3 4 4 6 11 18 21 17 13 13 14 14 11 8 6 6 8 8 7 4 3 4 5 4 6 8 8 6 5 6 7 8 7 6 4 3 2 1 1 1
1 3 4 2 1 4 8 7 4 3 4 5 9 18 24 22 16 13 13 14 14 12 9 7 5 6 7 6 4 3 3 4 2 3 4 5 4 4 4 4 4 4 3 3 3 2 2 2 2
2 4 6 5 5 7 9 8 7 6 7 10 17 24 25 22 18 15 15 15 15 14 11 9 7 5 5 4 3 4 4 4 2 1 2 3 3 3 3 3 3 3 2 1 1 1 1 3 3
2 5 8 9 10 11 11 11 11 11 14 22 28 29 27 23 21 18 16 16 15 14 12 10 8 5 4 4 3 3 3 3 2 1 1 2 3 3 2 2 3 3 1 0 0 0 0 1 2
2 6 10 12 12 14 15 14 14 14 19 28 31 29 27 24 21 17 15 14 12 10 10 9 6 4 4 4 3 1 1 1 1 0 1 1 1 2 1 2 3 2 1 0 0 0 0 0 1
2 6 10 10 10 11 13 13 13 16 22 27 27 23 22 20 17 14 12 12 10 9 8 7 6 4 4 4 3 1 0 0 0 0 0 0 0 0 0 1 2 2 1 0 0 0 0 0 0
1 4 6 6 5 6 7 8 11 17 24 24 21 17 15 15 13 11 10 10 10 10 9 8 7 5 3 3 3 2 1 0 0 0 0 0 0 1 1 1 1 1 0 0 0 0 0 0 0
1 3 3 3 3 3 4 6 10 18 22 20 15 13 13 13 12 11 10 10 10 10 9 9 7 5 4 3 3 2 1 0 0 0 0 0 0 1 2 2 2 2 1 0 0 0 0 0 0
1 2 2 2 2 2 3 6 11 15 16 14 13 13 15 15 12 11 11 11 10 8 8 8 7 5 5 5 3 2 1 0 1 1 0 0 1 2 2 2 2 2 1 0 0 0 0 0 0
0 1 1 1 1 2 4 7 11 12 11 10 12 14 16 15 13 11 11 11 9 7 7 7 5 4 4 5 4 2 1 1 2 2 1 1 2 2 1 1 1 1 0 1 1 1 0 0 0
0 0 0 1 2 4 6 8 10 11 8 7 9 12 15 16 15 12 11 10 8 7 7 6 4 2 2 3 3 3 3 3 3 2 1 1 2 2 1 0 0 0 0 1 1 1 1 0 0
0 0 0 1 2 3 5 7 9 9 8 7 8 11 14 15 15 14 12 10 8 7 7 7 5 3 2 3 4 4 4 4 3 2 1 0 1 1 0 0 0 0 0 0 0 1 1 1 0
0 0 0 0 1 1 2 3 5 5 7 9 11 13 14 14 14 14 12 10 8 7 7 8 7 6 5 6 7 7 6 6 4 1 0 0 0 0 0 0 0 0 1 1 0 1 2 2 1
0 0 0 0 0 0 0 1 2 3 5 7 12 16 16 14 13 12 9 7 6 6 7 8 8 7 7 8 8 8 7 7 4 1 0 1 1 0 0 0 1 1 1 1 0 1 2 2 2
0 0 0 0 0 0 0 0 1 2 3 4 9 15 16 14 12 9 6 3 4 5 6 7 6 6 6 7 7 7 7 7 5 2 1 1 1 0 0 0 1 1 1 1 0 0 1 2 3
0 0 0 0 0 0 0 0 0 1 1 2 6 11 14 14 11 7 4 2 2 3 5 5 5 6 6 6 6 6 6 6 6 4 2 1 1 0 0 0 1 1 0 0 0 0 1 2 3
0 0 0 0 0 0 0 0 0 0 0 0 2 7 10 11 9 6 5 4 3 3 4 5 6 6 6 6 6 6 6 6 5 3 2 0 0 0 0 0 0 0 0 0 0 0 0 1 2
0 0 0 0 0 0 0 0 0 0 0 0 1 4 6 6 6 6 6 5 4 4 5 6 6 6 6 5 5 5 5 4 3 1 1 0 0 0 0 0 0 0 0 0 0 0 0 1 2
0 0 0 0 0 0 0 0 0 0 0 0 1 2 3 4 5 6 6 4 4 4 5 4 4 4 4 4 3 3 2 1 1 0 0 0 0 0 0 0 0 0 0 0 0 0 0 0 1
0 0 0 0 0 0 0 0 0 0 1 1 1 1 2 3 4 5 5 3 2 3 3 3 3 3 3 2 2 1 1 0 0 0 0 0 0 0 0 0 0 0 0 0 0 0 0 0 0
0 0 0 0 0 0 0 0 0 1 2 2 1 0 2 4 4 3 3 2 1 2 3 3 3 3 2 1 1 1 0 0 0 0 0 0 0 0 0 0 0 0 0 0 0 0 0 0 0

GEFSSGP_con_probscp_168.txt.gz
Probability
0 0 0 0 0 0 0 0 0 0 0 0 0 0 0 0 0 0 0 0 0 0 0 0 0 0 2 4 7 9 10 12 12 8 5 3 1 1 1 0 0 0 0 0 0 0 0 0 0
0 0 0 0 0 0 0 0 0 0 0 1 1 1 0 1 1 0 0 0 0 0 0 0 0 1 3 7 11 13 14 14 13 11 8 5 2 1 0 0 0 0 0 0 0 0 0 0 0
0 0 0 0 0 0 0 0 0 0 1 2 2 1 1 1 2 1 1 1 1 1 0 0 0 1 4 8 13 16 16 14 13 12 10 7 4 2 1 1 1 1 0 0 1 1 0 0 0
0 0 0 0 0 0 0 0 1 1 2 3 3 2 1 2 4 5 5 4 3 2 1 0 0 0 3 7 11 15 16 15 13 11 9 7 5 3 3 2 2 2 1 1 2 2 1 1 1
0 0 0 0 0 0 0 1 2 2 2 4 4 2 2 3 6 9 9 7 4 3 1 1 0 1 2 5 9 13 16 18 16 13 9 6 4 3 3 3 3 3 3 3 2 2 2 2 2
0 0 0 1 1 1 1 2 2 2 2 3 5 3 3 4 8 11 11 8 5 3 2 1 1 2 3 5 9 13 16 18 18 14 9 5 4 3 3 4 4 4 3 2 1 1 1 1 2
0 0 0 1 2 2 1 2 2 2 2 3 5 5 5 8 11 11 10 7 5 3 3 2 3 3 4 5 7 10 12 13 13 11 7 4 4 4 4 5 4 3 2 1 0 0 0 0 1
0 0 0 1 3 2 2 2 4 3 3 4 5 6 10 16 17 13 10 9 6 4 4 3 4 4 4 3 4 5 6 7 7 6 4 3 3 4 5 5 5 4 2 1 0 0 0 0 0
0 0 1 3 4 3 3 5 5 4 3 4 6 9 17 24 23 17 15 14 12 10 6 3 3 4 4 3 2 3 3 3 3 3 3 3 3 3 4 6 6 4 2 1 1 0 0 0 0
0 1 3 5 5 5 7 8 7 4 3 4 7 14 22 28 27 22 19 18 18 16 11 6 4 6 7 6 7 7 5 2 2 2 3 4 5 5 5 6 7 4 1 1 1 0 0 0 1
1 1 2 4 5 8 9 9 7 5 4 4 9 17 25 27 25 21 18 18 20 19 16 12 10 12 12 11 11 11 8 5 5 5 6 7 8 9 8 8 8 6 4 2 2 1 1 1 3
3 3 2 3 6 9 10 9 9 8 7 7 11 19 23 23 21 18 16 16 19 21 20 17 15 16 17 16 15 14 11 9 9 10 10 11 11 11 12 12 11 9 7 5 3 3 2 2 3
4 4 5 6 7 10 10 9 11 12 10 9 12 16 18 18 17 16 15 15 18 21 21 18 16 18 21 22 20 16 13 12 12 12 13 13 12 12 13 15 14 10 6 5 5 4 4 3 3
3 5 8 8 8 9 10 9 11 11 10 10 11 13 13 13 15 15 14 14 16 17 16 15 16 19 23 24 22 18 15 14 13 13 13 13 13 14 15 16 14 9 6 5 4 5 6 6 6
2 4 7 7 7 6 6 7 9 10 10 11 13 14 15 14 14 15 14 14 15 15 14 14 16 19 22 22 20 16 15 13 12 12 12 13 14 15 16 14 12 9 8 6 4 5 8 9 8
1 1 3 4 4 3 3 5 9 10 11 14 16 17 18 16 15 15 15 16 18 18 17 17 15 17 21 22 19 16 13 11 10 11 12 12 13 14 14 13 11 10 8 5 4 4 6 8 8
0 0 0 1 1 1 2 5 10 12 13 15 17 19 18 15 14 14 15 17 19 20 20 18 15 16 19 20 18 15 12 10 10 11 12 12 13 13 12 11 10 9 7 4 4 4 6 7 7
0 0 0 0 0 1 2 4 8 13 13 14 16 17 16 15 13 14 15 16 19 20 20 18 16 15 15 14 14 13 11 10 11 11 12 13 12 11 9 7 7 7 6 4 3 5 6 5 6
0 0 0 0 1 2 2 2 6 12 13 12 14 15 14 13 13 13 15 18 20 21 20 18 16 13 11 11 11 12 11 10 10 11 12 11 10 9 7 5 5 5 6 4 4 6 6 5 5
0 0 0 0 1 2 2 1 5 11 13 12 14 16 14 14 14 15 17 20 22 22 19 17 15 12 10 11 12 12 11 10 10 11 11 9 8 8 7 5 5 5 5 5 6 8 8 6 6
0 0 0 0 0 1 1 0 2 7 10 11 14 17 18 19 20 19 20 22 22 20 17 14 13 12 12 12 11 10 10 10 11 12 11 9 7 7 7 5 5 5 5 6 7 9 9 9 8
0 0 0 0 0 0 0 0 0 3 6 9 13 17 21 25 27 25 23 22 20 16 13 10 9 10 11 12 11 9 9 10 11 13 12 10 8 6 5 4 4 4 5 5 6 7 7 8 8
0 0 0 0 0 0 0 0 1 2 4 6 11 17 22 26 31 29 25 22 17 12 9 8 7 7 8 10 11 12 11 11 12 13 12 10 8 6 4 3 3 3 3 3 4 5 5 6 6
0 0 0 0 0 0 0 0 1 2 3 4 10 17 23 27 30 29 25 21 16 11 9 9 8 7 6 8 12 14 14 13 14 13 11 10 8 7 5 3 2 2 1 1 3 4 5 5 6
0 0 0 0 0 0 0 0 1 2 2 4 9 15 24 29 30 28 24 20 16 13 12 12 10 9 8 8 10 13 14 14 14 13 11 8 7 7 6 4 3 2 1 1 3 5 5 5 6
0 0 0 0 0 0 0 0 0 1 3 6 10 16 26 33 33 27 22 18 16 15 14 13 11 10 9 8 9 10 11 12 12 11 10 8 7 6 5 4 3 3 1 1 3 4 4 3 3
0 0 0 0 0 0 0 0 0 1 4 8 13 18 25 30 30 24 18 14 13 13 12 11 10 8 8 7 7 8 9 10 10 10 9 8 7 5 4 3 3 2 1 1 1 1 1 1 1
0 0 0 0 0 0 0 0 1 3 5 8 13 17 19 22 23 19 14 11 10 10 9 9 8 7 6 6 6 8 9 9 9 9 8 7 5 3 2 2 2 1 1 0 0 0 0 0 0
0 0 0 0 0 0 0 0 1 3 4 7 11 13 14 16 16 14 11 11 9 8 7 6 6 6 6 5 6 7 8 8 7 7 7 6 5 3 1 1 1 0 0 0 0 0 0 0 0
0 0 0 0 0 0 0 0 1 2 3 6 9 10 12 14 12 10 10 11 9 7 5 4 5 6 6 5 5 6 7 7 6 6 6 5 4 3 1 0 0 0 0 0 0 0 0 0 0

GEFSSGP_con_probscp_174.txt.gz
Probability
0 0 0 0 0 0 0 1 1 2 5 6 6 6 8 9 7 4 5 12 16 11 6 6 7 6 4 5 5 5 3 2 1 1 1 0 0 0 0 0 0 0 0 0 0 0 0 0 0
0 0 0 0 0 0 1 2 4 5 5 6 7 8 8 8 8 7 8 14 17 11 8 8 8 7 6 6 6 5 4 3 2 2 2 1 0 0 0 0 0 0 0 0 0 0 0 0 0
0 0 0 0 0 0 2 5 7 8 7 6 9 10 8 7 8 10 14 18 18 12 9 10 9 7 7 7 7 6 4 3 3 3 3 2 1 1 1 0 0 0 0 0 0 0 0 0 0
0 0 0 0 0 1 4 6 8 8 9 9 12 13 12 9 9 14 19 21 18 12 9 10 10 8 7 8 9 8 7 5 4 3 3 2 2 2 1 1 1 1 0 0 0 0 0 0 0
0 0 0 0 1 3 7 7 6 9 11 12 16 18 17 15 14 18 21 20 15 11 10 11 12 11 10 10 10 11 10 7 5 4 3 2 2 2 2 2 2 2 1 0 0 0 0 0 0
0 0 0 0 2 5 8 7 7 10 13 15 19 22 20 17 18 19 19 15 12 12 11 11 12 13 11 9 8 9 9 8 7 5 3 3 3 3 2 2 2 2 1 0 0 0 0 0 0
0 0 0 1 3 6 7 7 9 12 16 19 21 22 20 20 20 19 16 13 13 15 15 11 9 9 7 5 4 6 8 9 7 5 4 3 4 3 3 2 1 1 0 0 0 0 1 1 0
0 0 0 1 4 6 7 9 12 16 20 23 23 22 24 25 23 20 17 15 16 18 18 14 8 5 3 2 4 8 10 10 8 5 4 3 3 3 3 3 3 2 1 1 0 0 1 1 1
0 0 1 2 4 6 8 12 14 17 19 22 25 29 31 30 25 22 21 20 20 21 21 18 13 8 4 5 8 10 11 10 9 7 6 5 4 3 3 6 8 6 3 2 1 2 2 1 0
0 1 2 3 4 6 9 12 12 12 12 16 25 33 34 30 26 25 24 23 23 22 21 21 19 14 11 12 15 14 13 14 13 10 11 11 9 6 8 13 15 10 5 4 3 4 3 2 1
1 2 4 5 5 6 8 10 10 9 10 15 23 29 28 25 26 27 26 25 24 24 23 22 22 22 20 22 23 20 19 20 19 17 19 20 18 15 16 21 21 14 8 6 6 5 4 3 2
0 1 3 5 6 7 7 9 11 12 16 20 24 25 22 22 27 31 29 27 26 26 26 26 29 33 34 33 30 25 24 25 24 23 25 26 25 23 22 25 26 21 16 13 10 8 6 5 4
1 1 1 3 6 7 7 9 11 14 17 21 25 26 24 26 32 34 33 33 31 29 30 34 39 44 46 42 35 28 29 29 27 28 28 27 27 26 25 28 29 28 25 20 15 11 10 9 8
2 1 1 1 3 5 6 7 10 12 13 17 21 25 29 34 38 39 40 41 39 36 37 40 44 48 49 44 35 30 32 32 31 32 31 29 27 26 28 30 31 29 27 24 19 15 13 12 11
1 1 0 1 2 3 4 6 9 11 12 16 20 26 34 40 43 45 46 46 46 45 44 42 42 44 46 41 34 31 33 33 33 35 34 30 26 26 28 31 32 30 27 25 22 18 15 13 11
0 0 0 1 1 1 2 6 10 12 14 19 23 28 37 42 44 46 47 49 51 51 49 44 39 39 41 39 35 33 34 33 33 35 34 29 24 25 27 29 31 32 29 26 23 20 16 13 11
0 0 0 0 0 0 1 6 11 13 16 21 24 31 40 45 45 47 50 53 53 52 49 44 40 39 38 36 34 33 32 32 32 32 31 27 23 23 25 26 28 30 29 26 23 21 18 13 11
0 1 1 1 0 0 2 7 13 14 16 20 25 34 43 46 48 51 54 56 54 51 47 44 43 42 39 34 31 29 27 27 27 28 28 26 23 22 23 24 25 27 26 24 22 20 18 15 14
0 1 2 1 1 1 3 7 12 15 18 21 26 36 46 50 51 56 57 55 52 49 46 43 42 41 39 33 29 26 23 21 21 23 24 22 20 20 21 23 25 26 24 20 18 17 16 15 15
0 0 1 1 1 2 3 5 8 12 17 21 26 35 46 51 54 56 55 50 48 47 44 42 41 40 37 33 28 24 21 18 18 20 21 19 17 18 20 21 23 24 23 19 15 14 13 12 12
0 0 0 0 1 2 2 2 5 10 15 21 26 32 40 48 53 54 52 48 46 45 42 39 38 36 33 30 27 24 21 18 18 19 20 19 17 18 19 19 20 21 21 20 16 13 10 9 8
0 0 0 0 0 1 1 1 4 10 16 21 24 28 37 44 48 51 51 48 45 43 40 37 34 31 28 26 26 25 21 18 19 21 20 19 19 19 18 18 17 17 18 17 16 13 10 7 5
0 0 0 0 0 1 0 0 4 11 16 18 19 26 37 44 46 49 50 48 44 41 38 35 33 31 28 26 25 23 19 17 19 20 19 19 19 18 16 14 13 13 13 13 12 11 9 5 3
0 0 0 0 1 1 0 1 6 12 15 14 18 26 36 42 46 48 49 47 42 38 34 33 34 33 29 25 22 21 18 16 16 17 18 19 18 17 14 11 10 9 9 9 8 8 6 3 2
0 0 0 0 1 0 0 2 8 13 16 19 25 31 35 42 46 47 45 42 39 34 32 31 31 29 25 22 20 19 17 16 15 14 16 17 17 16 13 11 10 9 8 7 6 5 4 3 2
0 0 0 0 0 0 0 4 11 17 22 27 32 33 35 40 43 43 41 38 35 33 32 30 27 23 21 20 20 18 17 15 13 12 13 15 16 15 13 11 10 8 7 6 6 4 3 3 2
0 0 0 0 0 0 1 6 14 20 24 27 29 30 33 36 39 40 40 37 34 32 31 29 24 20 19 19 17 16 14 13 10 9 11 14 14 13 11 9 8 7 7 6 6 4 3 2 1
0 0 0 0 0 0 0 5 13 18 20 22 23 26 30 33 35 38 39 37 33 31 29 25 22 19 17 15 13 12 12 10 8 8 10 11 11 10 9 7 7 6 6 6 5 4 3 2 1
0 0 0 0 0 0 0 2 9 15 16 17 21 25 29 31 33 36 36 33 29 26 24 20 17 16 14 11 10 11 10 8 7 7 8 7 7 6 6 6 6 5 4 4 3 2 1 1 0
0 0 0 0 0 0 0 2 8 14 15 15 20 26 29 29 31 34 35 31 25 22 18 14 13 14 13 11 11 11 10 7 6 6 5 4 3 3 4 4 4 4 4 3 2 1 0 0 0

GEFSSGP_con_probscp_180.txt.gz
Probability
0 0 0 0 0 0 0 0 1 2 3 3 5 8 10 7 2 0 0 0 1 2 2 4 7 5 4 3 4 5 7 6 4 3 2 1 0 0 1 1 0 0 0 0 0 0 0 0 0
0 0 0 0 0 0 0 0 2 3 5 8 10 11 9 5 1 0 0 1 2 3 3 5 7 6 4 3 4 6 7 6 4 3 1 0 0 1 2 2 1 0 0 0 0 0 0 0 0
0 0 0 0 0 0 0 2 4 6 9 12 14 13 8 4 1 1 1 3 4 4 4 6 8 6 4 4 4 5 6 5 4 3 1 1 1 2 3 3 2 1 0 0 0 0 0 0 0
0 0 0 0 0 0 1 3 5 7 10 14 15 13 9 5 4 6 7 7 7 6 5 8 10 9 7 6 5 5 6 6 6 4 3 3 3 3 3 2 3 2 1 0 0 0 0 0 0
0 0 0 0 0 0 2 3 5 8 12 16 17 15 12 9 11 13 11 10 10 10 9 11 13 12 11 9 7 7 8 8 8 7 6 5 4 4 3 3 3 2 1 0 0 0 0 0 0
0 0 0 0 0 0 1 2 7 12 16 19 21 20 16 14 16 17 14 12 13 13 13 13 15 14 13 11 9 8 9 9 9 9 9 8 7 4 3 3 2 1 0 0 0 0 0 0 0
0 0 0 0 0 0 1 5 12 17 20 22 22 20 17 17 20 20 17 15 13 13 14 13 12 12 12 12 11 11 10 10 10 10 9 9 7 4 3 2 2 1 0 0 0 0 0 0 1
0 0 1 1 0 1 3 9 16 20 23 24 20 17 17 21 25 25 22 18 13 11 12 11 9 9 10 12 12 13 11 10 10 10 8 7 5 4 3 2 3 2 1 1 1 1 1 1 2
0 1 2 3 1 1 4 10 16 21 25 27 24 20 22 27 30 30 26 22 16 11 9 9 8 7 8 10 10 11 11 10 10 9 7 5 4 3 2 2 2 2 2 2 2 2 2 1 2
1 2 3 3 2 2 4 8 13 18 23 27 28 25 26 30 32 31 29 26 21 13 8 6 6 6 6 7 7 7 8 9 8 7 6 5 4 3 1 1 1 1 2 3 3 3 2 1 1
2 2 3 3 3 4 5 7 10 13 16 22 27 28 27 28 30 31 32 29 22 16 10 8 7 5 4 5 5 5 6 7 6 6 5 4 4 3 1 0 0 1 2 3 3 2 2 1 0
1 2 2 3 4 6 8 10 11 12 13 19 26 28 27 25 25 28 32 30 24 19 16 13 10 7 5 6 6 6 6 6 5 4 4 4 4 4 3 1 1 1 2 2 1 1 1 1 1
1 1 1 2 5 7 10 11 12 14 17 23 28 31 28 24 22 26 31 31 27 23 20 18 14 10 9 8 8 8 8 6 5 4 4 6 6 5 4 3 2 3 3 2 1 0 0 0 0
1 0 1 2 4 5 8 9 10 13 19 25 29 32 31 28 26 30 34 33 28 25 24 22 18 14 12 11 10 10 9 6 5 5 5 6 5 5 4 4 3 3 2 1 0 0 0 0 0
0 0 1 2 2 3 4 6 7 11 19 26 30 33 34 32 32 35 37 35 30 29 30 28 24 20 17 15 12 11 8 6 5 4 4 5 5 5 5 4 3 2 1 0 0 0 0 0 0
0 0 1 1 1 1 2 4 7 14 22 28 32 36 36 32 31 33 36 35 33 34 34 33 29 25 22 19 15 11 7 5 4 4 4 5 5 5 4 4 3 1 0 1 1 1 0 0 0
0 0 0 0 0 0 2 5 9 16 23 28 33 38 38 34 30 30 34 36 37 36 36 34 31 28 23 19 15 11 8 6 5 5 6 6 6 5 4 4 3 1 0 1 1 1 0 0 0
0 0 0 0 0 1 3 7 12 17 22 27 32 37 39 35 33 35 38 40 39 37 35 35 32 27 20 15 13 11 10 8 7 6 6 6 7 7 6 6 5 2 0 0 0 0 0 0 0
0 0 0 0 0 1 4 8 12 16 21 24 27 33 36 35 36 40 42 41 39 36 34 34 31 24 16 12 11 10 10 8 6 5 5 6 8 9 9 8 6 2 0 0 0 0 0 0 0
0 0 0 0 1 2 3 5 8 12 17 20 23 28 32 34 37 39 40 39 38 34 31 30 27 20 14 11 9 9 8 7 5 4 5 6 8 9 9 8 5 1 0 0 0 0 0 0 0
0 0 0 0 1 2 2 3 4 6 12 17 20 23 29 34 36 36 36 37 36 32 28 25 20 14 11 9 8 7 7 5 4 3 4 4 5 6 6 6 4 1 0 0 0 0 0 0 0
0 0 0 0 0 1 1 1 1 4 8 14 17 21 28 33 34 34 35 34 31 27 24 20 14 9 8 7 6 5 5 4 3 3 3 2 2 2 3 3 3 1 0 0 0 0 0 0 0
0 0 0 0 0 0 0 0 1 3 6 11 15 20 26 29 31 33 34 30 25 22 21 18 12 7 6 6 4 3 3 3 3 2 1 1 1 0 1 1 2 1 0 0 0 0 0 0 0
0 0 0 0 0 0 0 0 0 2 5 9 13 19 23 25 28 31 31 27 22 20 19 16 12 8 7 6 4 3 3 3 3 2 0 0 1 1 1 1 1 1 0 0 0 0 0 0 0
0 0 0 0 0 0 0 0 1 3 5 8 12 18 22 23 25 28 28 25 20 17 16 14 11 9 7 5 4 3 3 3 3 2 1 2 2 2 2 2 2 2 1 0 0 0 0 0 0
0 0 0 0 0 0 0 0 2 3 6 8 12 17 21 23 25 27 26 21 16 13 13 13 11 9 7 5 4 4 3 3 3 4 4 4 4 3 3 3 3 2 1 0 0 0 0 0 0
0 0 0 0 0 0 0 0 1 3 5 8 12 16 20 23 26 26 23 18 13 11 11 12 12 10 7 5 4 3 3 3 4 5 6 5 4 3 2 2 2 2 1 0 0 0 0 0 0
0 0 0 0 0 0 0 0 1 2 4 7 11 15 17 21 24 23 20 18 14 11 9 10 10 9 7 5 4 3 3 3 4 5 5 4 2 1 1 1 1 1 0 0 0 0 0 0 0
0 0 0 0 0 0 0 0 1 1 2 4 9 13 16 19 20 18 17 17 15 12 11 10 8 7 5 4 3 3 3 3 3 3 3 1 1 0 0 0 0 0 0 0 0 0 0 0 0
0 0 0 0 0 0 0 1 1 1 1 3 8 12 15 18 17 15 15 15 15 14 13 10 7 5 4 4 3 3 3 3 2 1 1 0 0 0 0 0 0 0 0 0 0 0 0 0 0

GEFSSGP_con_probscp_186.txt.gz
Probability
0 0 0 0 0 0 0 0 0 0 0 1 2 4 3 1 0 0 0 0 0 0 1 2 5 8 8 7 6 7 9 9 8 7 8 9 8 7 7 6 5 4 3 1 1 1 0 1 1
0 0 0 0 0 0 0 0 0 0 0 2 4 4 3 1 0 0 0 0 0 0 0 2 6 9 8 6 5 6 7 7 7 8 9 10 9 8 7 5 4 3 2 1 0 0 0 0 1
0 0 0 0 0 0 0 0 0 1 2 5 6 5 2 1 0 0 0 0 0 0 0 2 7 11 9 6 5 5 5 6 7 8 10 10 10 9 8 5 4 3 2 0 0 0 0 0 1
0 0 0 0 0 0 0 0 0 2 6 8 8 5 2 0 0 0 1 1 2 2 1 3 9 12 10 7 5 5 5 6 7 8 9 10 9 8 7 5 4 3 2 1 0 0 1 1 2
0 0 0 0 0 0 0 0 1 3 7 9 9 7 4 2 1 1 2 3 4 5 4 6 11 13 11 9 8 8 7 7 7 8 9 10 9 7 5 3 3 4 3 1 1 1 1 2 2
0 0 0 0 0 0 0 0 1 4 7 9 8 7 5 3 1 2 4 6 7 10 11 12 14 15 13 12 13 12 11 10 11 11 11 12 12 9 6 4 3 4 4 3 3 2 1 1 1
0 0 0 0 0 0 1 2 3 6 8 8 5 4 5 4 4 6 10 12 14 16 18 18 16 15 15 15 16 17 16 16 15 15 14 14 14 12 10 7 5 5 6 6 4 2 1 1 1
0 0 0 1 0 0 1 3 5 7 6 6 5 4 5 9 12 14 17 18 18 18 20 20 17 14 14 16 18 19 19 17 15 15 14 13 12 10 10 8 7 8 7 5 3 1 1 1 1
0 0 0 0 0 0 1 3 7 8 7 7 10 10 12 19 23 22 22 20 17 16 16 17 16 13 13 15 17 18 18 14 11 11 12 11 9 7 7 6 6 6 5 3 1 1 2 2 2
0 0 0 0 0 0 2 5 8 8 7 9 15 19 23 28 29 26 23 18 14 13 13 14 14 12 10 13 14 15 14 11 9 8 9 10 8 6 5 5 4 3 3 1 0 1 1 1 1
0 0 1 0 0 1 5 8 9 7 5 9 18 25 30 30 29 26 20 14 12 12 12 12 11 9 8 9 11 12 11 10 9 7 8 8 7 5 4 4 3 2 2 1 1 0 0 1 1
1 1 1 1 1 3 6 8 9 7 5 10 19 27 30 28 25 23 18 13 12 12 11 11 11 9 7 7 8 9 11 11 9 7 6 7 6 4 3 3 3 2 1 1 1 1 1 2 3
2 1 1 1 2 3 5 7 8 9 9 14 22 28 29 26 24 22 19 15 12 11 11 11 12 11 8 6 6 7 8 9 7 5 4 4 4 3 3 2 2 1 1 0 0 1 2 3 4
2 1 1 1 2 3 5 7 8 10 14 20 27 31 29 26 25 24 19 15 12 11 10 11 11 10 7 6 6 5 5 5 5 2 1 1 2 3 2 1 1 0 0 0 0 0 1 2 3
1 0 0 0 1 2 4 5 6 11 19 26 31 33 30 27 27 25 19 14 13 11 11 11 11 9 6 5 5 5 4 4 3 2 1 2 2 2 1 0 0 0 0 0 0 0 0 1 2
0 0 0 0 0 0 1 2 3 10 21 29 33 32 30 28 26 22 17 15 14 13 12 12 13 11 7 4 5 6 5 4 4 3 4 4 4 2 1 0 0 0 0 0 0 0 0 0 1
0 0 0 0 0 0 0 1 3 10 19 26 29 28 27 27 24 20 18 16 14 14 14 13 14 13 9 5 4 4 4 3 3 4 5 6 5 3 1 1 0 0 0 0 0 0 0 0 1
0 0 0 0 0 0 1 2 5 11 17 20 22 23 25 25 22 20 20 18 16 17 17 15 14 12 8 4 2 1 1 1 1 3 3 4 4 3 1 1 0 0 0 0 0 0 0 0 0
0 0 0 0 0 0 2 4 6 10 13 16 19 22 25 25 22 20 20 22 22 20 18 16 13 9 6 4 2 1 2 2 3 2 2 2 3 2 1 0 0 1 1 1 0 0 0 0 0
0 0 0 0 0 1 3 5 5 6 8 12 16 20 23 24 21 19 21 26 27 22 18 16 12 7 4 3 2 1 1 2 3 2 1 1 1 1 2 1 1 1 2 1 1 0 0 0 0
0 0 0 0 0 1 2 4 3 2 3 7 10 13 17 19 19 19 22 27 27 22 18 15 10 4 1 1 1 1 0 1 1 1 1 0 0 1 2 2 1 1 2 2 1 0 0 0 0
0 0 0 0 0 0 1 1 1 0 1 3 5 8 11 14 15 18 22 27 26 21 16 12 8 3 1 0 0 0 0 0 0 0 0 0 0 0 1 1 1 1 2 2 1 0 0 0 0
0 0 0 0 0 0 0 0 0 0 0 1 4 7 9 11 13 17 23 26 23 17 12 9 6 3 1 1 0 0 0 0 0 0 0 0 0 0 0 0 0 0 1 1 0 0 0 0 0
0 0 0 0 0 0 0 0 0 0 0 1 3 7 9 10 13 18 22 23 17 11 8 7 6 5 4 3 1 1 1 0 0 0 0 0 0 0 0 0 0 0 0 0 0 0 0 0 0
0 0 0 0 0 0 0 0 0 0 0 1 3 6 8 9 12 17 20 17 10 5 4 5 6 7 7 5 3 3 2 1 1 1 1 0 0 0 0 0 0 0 0 0 0 0 0 0 0
0 0 0 0 0 0 0 0 0 0 0 1 3 5 7 8 10 13 14 10 5 3 3 4 6 8 7 5 4 4 4 3 2 2 2 1 0 0 0 0 0 0 0 0 0 0 0 0 0
0 0 0 0 0 0 0 0 0 0 0 1 3 6 8 8 8 8 8 6 4 3 3 4 6 7 6 5 4 4 4 3 3 3 2 1 0 0 0 0 0 0 0 0 0 0 0 0 0
0 0 0 0 0 0 0 0 0 0 0 1 2 6 9 10 8 6 4 3 3 3 3 4 5 6 6 6 5 4 3 3 3 2 1 0 0 0 0 0 0 0 0 0 0 0 0 0 0
0 0 0 0 0 0 0 0 0 0 0 0 1 5 9 9 7 4 2 1 2 3 3 3 4 4 5 5 4 3 3 2 2 1 0 0 0 0 0 0 0 0 0 0 0 0 0 0 0
0 0 0 0 0 0 0 0 0 0 0 0 1 3 6 7 6 3 1 1 2 3 3 3 3 4 4 4 4 3 2 1 1 0 0 0 0 0 0 0 0 0 0 0 0 0 0 0 0

GEFSSGP_con_probscp_192.txt.gz
Probability
0 0 0 0 0 0 0 0 0 0 0 0 0 0 0 0 0 0 0 0 1 4 6 4 1 0 0 1 2 4 5 7 9 10 8 7 6 5 3 1 0 1 2 2 1 0 0 0 0
0 0 0 0 0 0 0 0 0 0 0 0 0 0 0 0 0 0 0 1 2 4 7 6 4 1 0 1 3 5 5 6 8 9 8 6 5 3 2 2 2 2 2 2 1 0 0 0 0
0 0 0 0 0 0 0 0 0 0 0 0 0 0 1 1 0 0 2 3 4 5 7 9 8 4 2 4 7 8 7 7 8 7 6 5 4 3 2 3 4 3 2 1 1 0 0 0 0
0 0 0 0 0 0 1 1 1 0 0 0 1 2 4 4 3 2 4 6 7 6 7 9 10 8 7 9 13 14 12 9 7 5 5 5 5 4 3 3 4 3 2 2 1 0 0 0 0
0 0 0 0 0 0 1 2 1 0 0 1 2 5 8 10 8 6 6 6 7 8 9 11 13 13 13 14 17 19 17 12 8 7 7 7 8 6 2 2 2 2 1 1 1 0 0 0 0
0 0 0 0 0 0 1 2 1 0 1 1 2 5 10 14 15 12 8 7 8 9 11 13 15 16 16 16 18 20 20 16 12 11 10 9 8 5 2 1 1 1 1 1 0 0 0 0 0
0 0 0 0 0 0 1 1 1 0 1 1 3 5 10 15 18 16 12 10 10 10 11 13 15 16 17 17 18 19 19 17 14 13 11 9 8 5 2 0 1 2 1 1 0 0 0 0 0
0 0 0 0 0 0 0 1 2 2 2 3 5 8 12 18 20 19 17 14 13 13 13 14 16 17 17 18 19 19 18 15 13 11 10 8 7 5 3 3 4 4 3 2 2 1 0 0 0
1 1 1 0 0 0 0 2 4 4 4 6 8 12 17 22 22 21 20 19 19 19 19 19 21 21 19 20 22 22 19 16 13 10 9 8 7 5 4 5 6 5 4 3 3 2 1 0 0
3 2 2 2 1 1 1 2 4 4 5 6 11 16 22 24 23 21 22 24 24 24 23 24 25 24 22 22 25 24 22 19 15 12 12 12 11 9 7 8 9 7 4 3 3 2 1 0 0
3 2 2 2 2 1 1 3 4 5 5 7 11 18 23 25 23 22 23 25 26 25 25 26 28 28 27 27 28 27 25 23 18 15 17 19 19 16 14 13 12 10 8 6 6 6 4 2 1
2 2 1 1 1 1 1 3 5 6 6 7 11 16 21 22 21 21 23 25 26 27 28 29 29 30 33 34 33 29 27 25 21 19 21 23 24 22 19 19 17 15 14 13 13 13 10 7 4
1 1 0 1 2 1 1 3 5 6 6 7 10 14 17 17 17 19 22 25 28 30 31 31 31 32 37 41 37 32 28 26 23 22 23 23 23 23 22 23 21 18 18 17 16 15 13 10 8
0 0 0 2 2 2 3 4 5 6 5 5 8 13 15 15 16 19 23 29 33 33 31 30 30 32 38 42 39 34 31 28 24 23 24 23 23 23 23 24 23 20 19 19 16 14 13 11 9
1 0 0 1 2 2 2 4 5 4 4 4 7 13 17 18 19 21 25 33 38 36 32 29 28 31 34 36 35 32 29 27 24 23 24 24 22 22 23 25 24 21 20 18 16 14 13 11 9
1 0 0 1 2 2 2 3 4 3 3 3 6 12 18 20 20 20 25 33 39 38 35 32 29 29 30 30 29 27 25 23 21 22 22 20 18 18 21 24 24 22 19 17 15 13 13 11 9
1 0 0 0 1 2 2 3 4 3 3 3 5 10 17 19 18 19 25 34 38 37 36 34 31 29 29 28 26 24 23 21 19 20 19 15 12 13 17 21 22 21 18 15 13 13 14 13 11
0 0 0 0 0 0 2 4 5 4 4 4 5 9 15 16 16 21 28 34 35 34 35 35 32 31 30 27 25 24 23 22 20 18 15 11 7 8 12 16 18 19 17 15 13 13 14 14 12
0 0 0 0 0 0 2 5 6 6 6 6 6 9 12 15 18 24 30 32 32 34 37 37 35 34 33 29 25 24 23 22 19 15 13 9 5 4 8 12 15 17 16 14 13 14 14 11 9
0 0 0 0 0 0 1 3 5 5 6 6 6 7 9 13 20 25 28 29 31 35 40 41 38 36 35 31 27 26 24 21 17 16 15 10 5 4 5 9 12 15 14 12 12 14 14 11 8
0 0 0 0 0 0 1 2 3 4 5 5 5 6 9 14 19 23 26 30 33 38 41 42 40 38 35 31 28 26 23 19 17 17 16 11 7 5 5 7 9 11 11 11 12 14 15 14 13
0 0 0 0 0 0 0 1 1 3 5 6 5 6 11 15 18 19 24 31 37 39 40 40 40 39 37 33 29 26 21 18 16 16 15 12 8 5 5 5 6 8 10 11 12 13 15 16 17
0 0 0 0 0 0 0 0 0 2 5 7 7 8 12 15 17 18 23 31 36 37 37 38 37 37 36 34 31 26 21 17 15 14 13 12 11 7 5 4 4 6 10 11 11 12 14 16 17
0 0 0 0 0 0 0 0 0 2 4 7 9 12 14 15 16 21 27 31 34 35 35 34 33 32 31 30 28 25 19 16 14 12 11 11 12 9 6 4 5 8 10 11 10 10 12 14 14
0 0 0 0 0 0 0 0 1 3 4 6 10 14 15 14 16 22 28 31 32 34 33 30 27 25 23 23 22 19 15 14 13 12 11 10 9 8 6 5 6 8 9 8 8 8 8 9 10
0 0 0 0 0 0 0 0 2 4 4 5 9 12 13 12 14 19 24 27 27 27 25 23 21 19 17 17 17 15 14 14 13 14 12 10 7 5 4 5 6 8 8 7 5 5 5 5 6
0 0 0 0 0 0 0 1 4 5 4 5 9 13 13 14 15 17 20 22 21 20 17 15 15 14 14 14 13 14 14 15 14 14 13 9 6 4 4 5 7 7 7 6 4 3 3 3 4
0 0 0 0 0 0 0 1 3 4 4 6 9 12 13 14 15 17 17 17 18 16 13 12 11 13 14 14 14 14 15 15 14 14 12 10 7 5 4 5 6 6 5 5 4 3 3 3 3
0 0 0 0 0 0 0 0 2 4 6 7 7 8 9 10 12 13 12 12 13 11 10 10 10 12 13 14 15 15 15 14 13 13 12 10 8 4 3 3 3 3 3 3 3 3 3 3 3
0 0 0 0 0 0 0 1 3 6 8 7 6 6 5 6 9 9 8 8 7 6 7 8 10 11 12 12 14 16 15 13 12 12 12 11 7 3 1 1 1 1 2 3 3 3 3 3 3

GEFSSGP_con_probscp_198.txt.gz
Probability
0 0 0 0 0 0 0 0 0 1 0 0 2 4 7 7 5 5 6 8 15 20 18 18 19 14 8 4 1 0 0 0 0 1 0 0 0 0 0 0 0 0 0 1 0 0 0 0 0
0 0 0 0 0 0 0 0 1 2 2 2 4 6 7 7 6 5 7 12 20 25 22 22 23 20 13 7 2 0 0 0 1 2 1 1 1 1 1 0 0 0 0 1 0 0 0 0 0
0 0 0 0 0 0 0 0 2 4 4 5 7 9 8 7 8 8 11 18 28 32 30 30 30 25 18 12 6 2 1 1 2 2 2 2 3 3 2 1 0 0 0 0 0 0 0 0 0
0 0 0 0 0 0 1 1 2 3 4 6 9 10 10 10 11 13 16 23 31 34 33 35 35 30 24 19 13 8 5 4 4 3 4 4 4 4 4 3 1 0 0 0 0 0 0 0 0
0 0 0 0 0 1 2 2 2 2 4 7 10 12 13 15 17 18 20 23 28 32 36 38 38 36 31 27 23 18 12 9 7 6 5 6 6 5 5 5 2 1 1 1 0 0 0 0 0
0 0 0 0 0 1 3 3 2 2 5 9 12 14 17 20 21 19 19 22 26 35 41 41 38 37 35 34 30 24 18 15 13 11 9 8 9 8 6 6 4 3 3 2 1 1 1 1 1
0 0 0 0 0 1 3 4 4 5 7 9 12 14 19 22 21 18 19 21 26 37 44 41 36 35 35 35 32 28 23 21 20 18 14 12 12 10 7 7 7 5 4 3 3 2 2 2 2
0 0 0 0 0 2 4 5 6 7 9 9 10 15 23 25 22 20 22 24 29 37 41 39 35 33 33 34 34 31 28 27 26 22 18 17 15 11 10 12 12 8 5 4 3 3 3 3 3
0 0 0 0 1 3 7 7 7 8 10 11 13 19 28 29 25 24 27 30 35 39 38 36 34 33 32 33 34 33 32 30 28 24 22 21 18 13 13 15 16 14 10 8 6 5 4 4 4
0 0 0 1 3 5 7 8 7 8 11 15 19 23 28 29 27 27 31 36 40 41 39 36 36 35 34 35 35 34 34 33 30 28 29 27 22 17 15 18 21 20 17 14 11 8 7 6 6
0 0 0 1 4 5 5 6 7 9 14 18 20 22 24 25 27 30 34 38 41 41 41 41 40 39 37 39 40 38 38 39 35 34 35 32 27 22 19 22 25 25 23 18 14 11 10 10 10
1 1 1 1 3 4 5 6 8 12 16 17 16 18 21 23 26 30 35 39 40 40 41 43 45 46 45 45 44 43 44 45 42 41 40 37 33 29 26 27 28 28 26 22 16 14 14 13 12
1 1 1 1 2 3 5 6 8 13 16 16 14 13 17 20 23 28 35 40 41 41 42 45 49 53 55 52 47 45 46 46 46 45 44 41 38 35 33 32 30 27 25 24 21 17 17 16 15
1 0 1 2 2 2 2 4 6 10 13 13 12 11 15 20 24 30 38 43 47 49 52 53 55 59 60 55 48 44 43 43 43 43 43 42 40 39 38 35 30 25 24 26 25 20 19 19 17
0 0 1 2 2 1 0 1 4 7 9 9 9 11 17 24 28 33 41 49 54 59 62 61 59 60 60 55 48 42 39 38 39 39 39 39 39 39 39 35 30 26 26 27 26 22 20 19 18
0 0 0 1 1 0 0 2 6 8 8 7 7 11 18 24 28 33 42 52 59 63 64 60 55 55 57 54 49 42 39 38 39 38 38 38 37 36 35 31 27 27 28 26 24 22 20 17 17
0 0 0 0 0 0 1 4 8 10 9 8 8 11 17 23 28 34 42 51 59 63 62 57 53 52 54 53 49 45 43 44 43 41 40 41 38 35 31 26 24 25 26 24 21 19 17 15 15
0 0 0 1 1 1 3 7 10 10 9 9 11 14 18 22 28 35 41 46 52 58 58 55 53 52 51 50 49 48 48 46 44 42 40 41 39 34 28 23 22 23 22 20 17 14 13 13 12
0 0 1 1 2 2 4 8 11 11 9 9 12 16 20 23 29 35 40 42 47 54 55 54 53 51 49 48 48 49 49 46 42 40 37 37 36 32 26 22 21 21 19 17 13 9 8 9 9
0 0 1 1 1 1 3 7 10 11 9 8 11 15 19 25 31 37 40 42 47 53 54 53 52 50 47 47 47 47 47 45 41 37 35 33 31 28 24 22 21 20 18 15 12 8 5 5 6
0 0 0 0 0 1 3 5 8 10 9 8 10 12 16 25 33 38 41 42 45 49 51 52 52 50 46 45 45 45 45 42 39 35 32 29 26 24 21 20 20 19 18 15 11 7 5 5 5
0 0 0 0 0 1 2 3 7 11 10 8 9 10 14 23 33 38 38 39 41 43 46 50 52 49 46 44 44 44 42 39 37 34 29 26 22 20 18 18 20 19 18 14 10 6 6 6 6
0 0 0 0 0 0 1 2 6 12 14 12 11 12 18 24 32 37 36 37 39 39 40 46 50 49 46 44 43 41 38 35 34 31 27 22 19 17 16 17 18 18 16 14 10 8 7 7 7
0 0 0 0 0 0 0 1 5 12 17 17 15 17 21 25 29 33 34 36 38 38 37 43 48 47 44 42 39 35 32 30 29 27 24 19 17 16 16 16 16 15 15 13 11 9 7 7 7
0 0 0 0 0 0 0 2 6 13 18 18 17 18 21 22 23 27 31 35 37 39 41 43 45 43 40 36 33 30 26 25 25 24 20 17 16 15 14 14 14 13 13 11 9 7 6 6 6
0 0 0 0 0 0 0 4 10 15 19 20 19 19 20 19 19 22 26 30 33 38 42 42 39 37 33 29 26 26 25 24 23 20 17 15 13 12 10 10 10 10 9 8 7 6 5 4 4
0 0 0 0 0 0 0 4 12 17 19 21 20 19 18 18 18 20 23 26 29 34 37 35 32 29 27 24 23 22 23 23 21 18 15 12 10 9 8 8 7 6 5 6 6 6 5 4 4
0 0 0 0 0 0 0 3 10 16 17 17 17 15 16 17 17 17 20 23 26 28 29 26 23 22 21 21 21 20 20 22 21 18 14 12 10 9 8 8 7 4 4 5 5 5 6 5 4
0 0 0 0 0 0 0 1 8 16 17 14 12 12 13 14 13 13 16 20 22 21 20 19 18 17 17 17 18 18 19 20 20 17 14 13 12 11 10 9 7 5 4 5 4 4 5 4 3
0 0 0 0 0 0 0 1 9 17 17 14 12 11 12 12 11 11 13 18 19 17 16 17 16 15 14 15 16 18 19 20 19 17 14 13 13 13 11 9 7 6 5 4 4 4 3 2 1

GEFSSGP_con_probscp_204.txt.gz
Probability
0 0 0 0 0 0 0 0 0 0 2 6 7 7 6 4 2 2 3 5 8 11 10 12 19 25 24 18 12 11 11 11 11 10 9 7 4 4 4 5 6 6 6 4 3 2 2 1 0
0 0 0 0 0 0 0 0 1 2 3 6 7 8 8 7 5 3 4 8 14 16 13 13 21 28 28 23 16 13 11 10 9 9 8 6 5 4 4 5 6 6 5 4 2 2 1 0 0
0 0 0 0 0 0 0 0 2 3 4 5 7 8 10 10 8 6 8 14 20 20 17 18 24 30 31 27 21 16 11 9 8 8 7 6 6 6 5 6 7 8 7 5 3 3 2 1 1
0 0 0 0 0 0 0 0 1 3 4 5 7 10 12 14 14 15 17 20 23 22 22 25 29 31 31 28 23 17 13 12 10 9 8 7 7 7 6 7 9 9 9 7 5 4 3 3 2
0 0 0 0 0 0 0 0 1 3 5 7 10 15 17 20 26 27 26 27 27 24 24 28 34 35 33 30 24 19 17 17 15 12 11 10 9 9 7 7 7 8 8 8 6 4 3 3 2
0 0 0 0 0 0 1 1 2 4 7 10 14 19 21 25 32 32 30 32 33 29 26 30 35 37 34 31 28 25 23 21 19 16 15 14 13 11 9 6 5 7 9 9 8 5 4 2 2
0 0 0 0 0 0 1 2 2 4 8 10 15 20 22 25 30 30 30 34 38 36 32 32 34 34 34 32 31 29 27 24 21 18 17 16 15 13 10 8 7 9 11 12 11 9 6 4 3
0 0 0 0 0 0 1 2 3 5 8 11 14 18 21 25 28 30 32 36 40 40 36 33 33 32 30 30 30 30 29 27 23 19 18 17 16 13 11 10 11 12 13 13 13 11 10 8 7
0 0 0 0 0 0 1 2 4 7 10 11 14 19 25 29 30 30 33 38 41 40 36 33 32 31 29 27 27 28 28 26 23 20 18 17 14 11 10 11 13 14 13 13 12 13 13 11 10
0 0 0 0 0 0 1 3 6 10 12 12 15 22 32 36 32 29 31 36 38 37 34 32 32 32 30 26 24 25 24 21 19 17 16 14 12 10 9 10 11 12 13 13 13 13 14 14 12
0 0 0 0 0 1 3 5 8 11 12 13 18 26 35 38 34 31 30 33 35 35 34 33 33 32 29 25 23 22 20 18 17 15 13 12 11 10 9 8 7 8 11 13 14 15 16 15 14
1 1 1 0 1 3 5 6 9 10 12 15 21 29 35 37 35 33 32 33 35 36 35 34 33 31 27 25 24 23 21 18 16 14 12 12 12 11 11 9 7 7 9 11 13 15 15 14 13
1 1 0 0 1 4 6 7 8 10 13 18 25 30 34 36 35 32 31 34 37 37 36 34 31 28 25 24 24 23 21 18 16 14 13 14 14 15 14 14 12 10 9 9 10 10 11 10 9
1 0 0 0 1 4 6 6 6 8 12 19 25 26 28 31 31 30 32 35 37 37 37 35 31 26 24 22 21 20 20 18 16 15 15 15 16 16 16 16 15 12 9 7 5 5 5 5 4
0 0 0 0 1 3 4 5 4 6 11 16 19 19 20 22 25 29 33 36 37 38 37 36 32 25 21 20 19 19 21 20 18 17 17 16 16 15 14 14 13 11 8 4 2 1 1 1 1
0 0 0 0 1 2 3 4 3 6 10 12 13 13 15 18 21 25 30 34 36 38 38 36 33 26 22 22 21 21 22 22 20 19 18 17 16 14 13 13 11 9 6 2 0 0 0 0 0
0 0 0 0 0 2 4 5 6 7 9 11 11 12 13 18 21 22 25 29 33 37 38 36 33 28 26 25 24 23 23 23 22 20 18 17 17 15 14 13 10 7 4 1 0 0 0 0 0
0 0 0 0 1 3 7 9 9 8 7 9 10 10 13 18 19 19 21 24 28 33 36 36 34 31 28 27 26 25 24 23 22 20 19 19 18 17 16 12 7 5 4 2 1 0 0 0 0
0 0 0 0 1 4 8 10 9 6 4 5 6 9 13 17 18 17 19 23 26 30 34 34 33 32 29 27 26 26 25 24 22 21 20 19 19 18 15 10 5 3 3 2 1 0 0 0 0
0 0 0 0 1 4 7 7 6 4 2 2 4 8 13 16 16 17 19 24 27 30 33 32 31 30 28 26 26 26 25 23 21 20 18 18 19 18 14 8 4 2 1 1 0 0 0 0 0
0 0 0 0 1 3 5 5 5 5 3 2 3 8 12 14 14 15 18 23 27 29 29 29 27 26 25 23 24 25 23 20 17 16 15 16 17 16 12 7 4 1 0 0 0 0 0 0 0
0 0 0 0 0 1 2 3 3 4 3 2 2 6 10 11 12 13 17 21 23 23 24 25 24 22 21 21 22 23 20 16 13 12 12 12 13 13 11 7 3 1 0 0 0 0 0 0 0
0 0 0 0 0 0 1 1 2 2 2 2 3 6 8 9 10 13 15 17 18 19 21 23 22 20 19 18 19 18 15 12 10 8 9 9 9 9 8 6 3 1 0 0 0 0 0 0 0
0 0 0 0 0 0 0 0 1 2 2 4 7 8 8 8 10 12 13 14 16 18 20 22 20 18 17 16 14 12 10 8 6 5 5 6 6 6 6 6 4 1 0 0 0 0 0 0 0
0 0 0 0 0 0 0 0 1 2 3 6 8 9 9 9 10 11 12 13 14 15 18 19 17 15 14 13 10 7 5 5 4 3 3 4 4 4 5 6 5 2 1 0 0 0 0 0 0
0 0 0 0 0 0 0 0 2 3 4 5 7 8 8 9 8 9 11 13 14 14 15 15 14 12 11 9 7 5 4 4 4 3 3 3 3 3 4 5 5 3 2 1 0 0 0 0 0
0 0 0 0 0 0 0 1 3 4 3 4 5 6 6 6 6 7 8 10 13 13 13 12 10 9 7 6 6 5 4 3 3 2 2 2 3 3 3 4 4 3 2 1 0 0 0 0 0
0 0 0 0 0 0 0 1 2 3 3 3 4 5 4 3 3 4 4 5 7 9 9 7 6 5 4 4 5 4 3 1 1 1 2 1 1 2 3 4 4 3 1 1 0 0 0 0 0
0 0 0 0 0 0 0 0 1 1 1 1 2 3 3 1 1 2 2 2 3 4 5 4 2 1 1 2 3 2 1 0 0 1 1 1 1 1 2 3 4 2 1 0 0 0 0 0 0
0 0 0 0 0 0 0 0 0 0 0 0 1 1 1 0 0 1 1 1 2 3 3 2 1 0 0 1 2 1 0 0 0 0 0 1 0 0 1 1 2 1 0 0 0 0 0 0 0

GEFSSGP_con_probscp_210.txt.gz
Probability
0 0 0 0 0 0 0 0 0 0 0 1 1 1 1 0 0 0 0 1 4 8 12 14 16 21 26 28 27 25 24 23 23 22 22 22 21 19 19 19 18 15 13 11 10 10 10 10 10
0 0 0 0 0 0 0 0 0 0 1 2 2 2 2 1 1 1 1 2 5 10 15 18 20 24 29 30 29 26 25 24 23 22 22 21 19 18 19 19 18 16 14 11 10 10 10 10 10
0 0 0 0 0 0 0 0 0 1 2 3 4 4 3 2 2 2 2 4 8 13 19 23 27 30 34 35 33 30 27 26 24 23 21 20 20 19 19 19 19 18 17 13 11 10 10 10 11
0 0 0 0 0 0 0 0 0 1 2 4 5 5 4 3 4 6 6 7 11 17 21 27 32 36 39 39 36 32 29 28 26 22 20 20 21 20 19 18 19 19 18 15 11 9 9 9 10
0 0 0 0 0 0 0 0 0 1 2 4 6 6 5 4 7 10 10 10 13 17 21 27 35 39 40 39 35 31 29 27 25 22 21 21 20 19 17 15 15 15 15 14 11 9 8 8 8
0 0 0 0 0 0 0 0 0 1 3 5 6 7 7 8 13 16 14 12 13 17 19 25 32 36 36 36 34 30 28 26 24 23 23 22 21 19 15 12 10 11 12 11 10 9 8 7 6
0 0 0 0 0 0 0 0 0 1 3 6 7 8 10 14 21 24 21 17 17 18 21 24 28 31 32 33 33 30 28 26 23 22 22 23 22 20 17 13 11 11 10 8 8 9 8 7 6
0 0 0 0 0 0 0 0 0 2 5 8 9 9 11 18 28 31 27 22 20 21 22 25 28 31 32 32 31 30 28 25 22 20 19 20 21 18 16 15 14 13 11 8 7 7 8 7 7
0 0 0 0 0 0 0 0 1 4 8 10 10 9 13 23 32 34 29 24 24 24 24 27 30 32 32 31 31 30 28 25 21 18 16 16 14 12 12 12 13 13 13 11 9 8 8 7 6
0 0 0 0 0 0 0 0 1 4 7 10 11 12 17 26 32 32 27 25 27 29 28 28 30 31 31 31 31 29 26 23 19 16 13 11 9 8 9 9 9 11 13 13 12 11 11 8 6
0 0 0 0 0 0 0 1 2 4 6 9 13 17 21 26 30 29 26 26 28 31 31 30 30 30 29 29 29 26 22 19 17 14 12 10 9 8 9 8 7 8 11 12 12 12 11 10 10
0 0 0 0 0 0 0 1 3 6 7 10 14 20 23 25 28 29 26 25 27 30 30 30 30 30 29 28 26 23 20 17 15 15 14 12 10 10 9 8 7 7 9 10 10 10 10 10 12
0 0 0 0 0 0 1 2 4 7 8 9 13 18 22 24 27 28 27 26 27 29 29 28 28 28 28 26 23 21 19 17 16 17 17 14 12 10 8 7 6 7 9 9 10 10 9 9 9
0 0 0 0 0 1 2 3 5 7 6 6 8 13 18 21 22 22 23 24 26 27 27 26 25 25 25 23 21 19 18 16 17 19 19 16 12 9 8 7 7 9 9 10 11 11 9 8 6
0 0 0 0 0 1 2 3 5 5 4 4 5 8 12 14 15 16 17 20 23 25 25 25 24 23 21 20 19 18 17 16 17 19 20 18 14 11 10 9 10 10 10 10 11 11 9 6 4
0 0 0 0 0 1 1 2 3 4 4 3 4 5 6 6 8 11 13 16 18 21 24 24 23 21 19 18 18 19 19 17 18 19 18 17 14 13 12 12 11 11 10 9 8 7 5 3 2
0 0 0 0 0 0 0 1 2 3 4 4 4 4 3 2 3 7 11 13 16 18 21 22 21 19 18 17 17 18 19 18 18 18 17 15 14 13 13 13 11 11 10 8 5 3 2 2 2
0 0 0 0 0 0 0 0 1 3 3 4 4 3 2 1 3 7 9 12 14 16 16 18 18 16 16 16 16 16 16 16 15 15 14 13 13 13 14 14 11 10 9 7 3 1 0 1 1
0 0 0 0 0 0 0 1 1 2 3 4 5 3 2 3 6 8 9 10 12 12 13 15 15 13 13 14 13 12 10 10 11 10 9 10 11 12 14 15 13 10 7 5 3 1 0 0 0
0 0 0 0 0 0 1 1 2 2 2 3 4 3 4 5 8 9 10 10 10 9 11 12 12 11 10 11 12 10 7 6 6 6 5 5 7 9 11 13 13 10 7 5 3 1 0 0 0
0 0 0 0 0 0 1 1 1 1 1 2 3 3 4 6 9 9 9 9 9 8 8 9 9 10 11 12 12 9 6 4 4 4 3 3 4 5 6 8 10 11 8 6 4 1 0 0 0
0 0 0 0 0 0 0 0 0 0 0 1 2 3 4 5 8 8 7 7 8 8 7 7 8 11 14 14 12 9 7 6 5 3 1 1 2 1 2 4 6 8 8 6 4 1 0 0 0
0 0 0 0 0 0 0 0 0 0 0 1 2 3 3 4 6 6 5 5 7 8 7 6 9 13 15 14 11 10 9 7 4 2 1 0 0 0 1 2 4 5 5 5 4 2 1 1 0
0 0 0 0 0 0 0 0 0 0 1 1 2 2 2 4 6 7 6 7 7 7 6 5 8 13 14 12 10 9 8 5 3 1 0 0 0 0 0 1 2 3 3 4 3 3 3 2 1
0 0 0 0 0 0 0 0 0 1 1 1 1 2 2 4 6 7 8 8 8 7 5 4 6 10 12 11 9 8 6 4 2 1 0 0 0 0 0 0 1 1 2 3 3 3 3 3 3
0 0 0 0 0 0 0 0 0 0 0 0 0 1 2 3 4 4 5 6 6 6 5 4 4 7 9 9 8 6 4 3 2 1 0 0 0 0 0 0 0 0 1 1 2 3 3 3 3
0 0 0 0 0 0 0 0 0 0 0 0 0 0 1 2 2 1 1 2 3 3 3 3 2 3 5 6 4 3 3 2 1 0 0 0 0 0 0 0 0 0 0 0 1 3 3 3 3
0 0 0 0 0 0 0 0 0 0 0 0 0 0 0 1 1 0 0 0 1 1 1 1 0 1 2 2 1 1 1 1 0 0 0 0 0 0 0 0 0 0 0 0 1 2 3 3 3
0 0 0 0 0 0 0 0 0 0 0 0 0 0 0 1 1 0 0 0 0 0 0 0 0 0 0 0 0 0 0 0 0 0 0 0 0 0 0 0 0 0 0 0 1 2 3 3 3
0 0 0 0 0 0 0 0 0 0 0 0 0 0 0 0 0 0 0 0 0 0 0 0 0 0 0 0 0 0 0 0 0 0 0 0 0 0 0 0 0 0 0 0 0 1 3 3 3

GEFSSGP_con_probscp_216.txt.gz
Probability
0 0 0 0 0 0 0 0 0 0 0 0 0 0 0 1 1 0 0 1 4 8 14 20 23 24 23 21 22 24 25 24 23 22 21 18 15 14 12 12 13 14 16 15 13 11 9 8 7
0 0 0 0 0 0 0 0 0 0 0 0 0 0 1 2 1 1 2 3 5 9 15 20 23 24 25 24 23 25 27 28 27 26 25 23 20 17 15 13 12 13 14 13 11 9 8 7 6
0 0 0 0 0 0 0 0 0 0 0 0 0 1 2 3 2 3 5 7 10 12 17 22 23 23 26 27 26 27 29 30 31 30 29 27 24 22 19 15 13 12 12 10 9 7 6 6 6
0 0 0 0 0 0 0 0 0 0 0 0 0 1 3 4 4 6 10 13 15 17 20 24 24 22 24 27 27 28 28 28 29 28 26 26 25 23 21 17 14 12 11 10 9 8 7 7 7
0 0 0 0 0 0 0 0 0 0 0 0 1 3 5 6 8 11 14 16 18 20 22 25 25 22 20 22 23 24 24 24 24 22 21 21 22 22 21 18 15 13 12 12 11 11 10 9 8
0 0 0 0 0 0 0 0 0 0 0 0 1 3 5 9 13 15 15 16 17 20 22 25 25 22 19 19 20 20 20 20 21 20 19 18 18 18 17 16 14 11 11 12 12 12 12 11 9
0 0 0 0 0 0 0 0 1 1 0 0 1 3 6 12 17 16 14 15 17 19 21 23 23 22 20 20 21 20 19 18 19 20 19 17 15 14 13 12 11 9 9 10 12 13 13 12 11
0 0 0 0 0 0 0 0 1 1 1 1 2 3 8 15 17 16 15 17 19 18 18 19 20 20 20 20 22 23 20 19 19 19 19 17 15 12 11 10 9 8 7 9 11 13 13 13 12
0 0 0 0 0 0 0 0 0 1 2 2 1 4 10 16 19 18 18 21 23 20 18 19 20 19 18 19 23 25 23 21 20 20 20 18 16 13 12 12 12 10 9 9 11 12 13 13 12
0 0 0 0 0 0 0 0 0 1 1 1 1 6 12 16 18 19 20 25 27 24 20 20 22 20 19 20 24 26 25 23 22 21 20 19 17 14 13 14 15 14 12 10 11 12 13 13 13
0 0 0 0 0 0 0 0 0 0 1 1 3 7 11 13 15 17 18 22 26 25 22 21 23 22 22 23 25 26 26 24 23 22 20 19 19 17 15 14 15 16 14 12 11 12 12 13 13
0 0 0 0 0 0 0 0 0 1 2 3 4 6 9 11 13 14 14 16 21 23 22 22 23 23 23 24 26 26 26 25 25 24 24 22 21 19 17 17 18 18 17 15 13 12 12 13 13
0 0 0 0 0 0 0 0 1 1 3 4 4 6 8 11 13 15 14 16 19 20 21 22 23 24 24 25 26 25 25 25 25 26 27 27 23 20 20 22 22 21 19 17 14 12 12 14 15
0 0 0 0 0 0 0 0 0 1 2 3 4 6 9 13 16 17 18 18 17 17 19 20 22 24 25 25 24 23 22 22 23 25 28 27 25 24 24 25 24 22 21 20 17 12 11 14 17
0 0 0 0 0 0 0 0 0 0 1 3 6 9 12 15 18 20 21 20 19 18 20 21 24 26 27 27 25 23 21 19 19 22 25 26 26 27 27 25 25 25 25 24 21 16 13 16 17
0 0 0 0 0 0 0 0 0 1 2 4 7 10 14 17 20 22 23 23 23 24 25 26 27 30 31 29 27 24 21 19 17 19 23 24 25 27 26 24 25 27 27 26 25 21 18 17 17
0 0 0 0 0 0 0 0 1 2 3 5 7 10 13 17 19 19 21 23 24 26 28 28 29 31 31 29 26 23 20 19 18 20 23 25 25 26 25 26 27 28 25 24 25 24 20 17 17
0 0 0 0 0 0 0 0 1 2 3 4 7 9 11 13 14 15 17 19 21 23 25 25 26 28 28 27 25 22 20 19 19 21 24 26 25 25 26 28 29 28 25 23 23 22 20 17 16
0 0 0 0 0 0 0 0 1 1 2 3 5 7 9 10 11 13 15 17 19 21 22 22 23 24 25 26 27 24 21 20 18 19 22 24 23 22 24 25 27 27 26 24 22 20 18 16 16
0 0 0 0 0 0 0 0 0 0 0 1 3 5 6 8 10 12 13 15 18 20 20 21 22 22 22 23 25 24 21 19 16 16 20 22 21 20 20 21 22 24 24 22 20 17 15 14 13
0 0 0 0 0 0 0 0 0 0 0 0 1 3 5 7 9 10 10 11 15 17 18 18 19 19 20 19 20 21 20 16 15 15 18 20 19 16 16 18 20 19 18 17 15 14 11 9 9
0 0 0 0 0 0 0 0 0 0 0 1 2 3 4 6 9 9 9 11 12 13 13 14 16 17 17 17 18 19 18 15 14 15 17 17 15 13 13 14 16 15 12 11 12 11 9 7 7
0 0 0 0 0 0 0 1 1 1 1 2 4 5 5 6 9 10 10 11 11 10 11 12 14 15 16 17 17 17 16 13 13 15 15 14 12 10 9 9 10 10 9 9 11 10 9 8 7
0 0 0 0 0 0 0 1 2 2 3 3 5 7 6 6 8 10 11 12 11 10 11 12 13 14 15 16 16 15 13 11 11 12 13 12 11 10 7 6 6 6 7 8 9 9 8 9 9
0 0 0 0 0 0 0 0 1 2 3 3 4 6 6 5 6 10 12 12 12 11 10 10 9 10 12 13 14 15 13 11 10 10 11 11 11 9 7 5 4 4 4 5 7 7 7 7 7
0 0 0 0 0 0 0 0 0 1 2 3 3 4 5 4 5 8 11 10 10 9 8 6 4 5 8 10 12 13 12 11 10 10 9 10 9 7 6 5 4 3 4 5 6 6 5 5 5
0 0 0 0 0 0 0 0 0 1 2 3 3 4 4 3 3 5 7 6 5 5 5 4 3 4 6 8 9 9 10 10 10 9 8 8 8 6 5 4 3 3 4 5 5 4 3 2 2
0 0 0 0 0 0 0 0 1 2 3 4 4 3 3 2 1 2 3 2 2 2 3 4 5 6 6 7 6 6 7 8 8 7 7 7 7 7 6 4 3 3 3 4 4 3 1 0 1
0 0 0 0 0 0 0 0 1 2 2 3 3 3 2 0 0 1 1 0 1 2 3 3 4 5 6 6 6 6 6 7 6 6 6 7 7 7 6 5 3 2 2 3 2 1 0 0 0
0 0 0 0 0 0 0 1 1 1 1 1 3 2 1 0 0 0 0 1 2 3 3 2 2 4 4 5 6 6 6 6 6 6 6 6 6 6 6 5 2 1 2 2 2 1 0 0 0

GEFSSGP_con_probscp_222.txt.gz
Probability
0 0 0 0 0 0 0 0 0 0 0 0 1 3 7 10 12 10 9 14 22 25 24 26 29 26 19 14 10 8 6 4 2 2 2 2 2 1 1 1 1 2 3 4 6 7 5 4 4
0 0 0 0 0 0 0 0 0 0 0 1 3 6 8 9 10 11 13 17 23 26 27 29 32 29 22 17 13 9 7 4 3 3 3 1 1 0 1 1 0 1 3 5 7 7 7 6 5
0 0 0 0 0 0 0 0 0 1 1 1 4 9 11 10 10 13 19 22 24 28 33 35 36 34 28 22 17 12 9 7 6 6 4 2 1 1 2 1 1 2 4 7 9 9 9 8 7
0 0 0 0 0 0 0 1 1 2 2 2 6 12 14 13 12 16 22 24 25 29 36 39 39 37 31 26 21 17 14 13 11 10 8 5 4 4 4 4 4 5 6 8 10 11 9 7 6
0 0 0 0 0 0 0 1 2 3 3 3 7 13 15 13 13 15 19 22 25 30 37 40 41 39 32 26 23 21 20 19 17 15 14 13 11 9 7 7 7 8 9 9 10 10 7 5 4
0 0 0 0 0 0 0 1 2 1 1 2 6 12 14 13 12 13 15 19 25 31 36 38 39 38 32 26 23 23 24 24 22 21 20 19 17 14 10 8 7 7 9 11 11 11 8 4 4
0 0 0 0 0 0 0 1 1 1 1 1 5 10 15 14 11 10 14 20 26 30 32 33 33 32 31 27 25 26 27 26 24 23 22 21 19 17 13 9 6 6 8 10 13 13 11 7 5
0 0 0 0 0 0 1 2 3 3 3 3 5 11 15 15 12 10 14 21 26 27 27 27 26 26 25 25 25 26 27 27 25 23 22 21 20 18 15 12 11 10 9 11 14 16 14 11 9
0 0 0 0 0 0 1 2 3 4 5 6 8 13 15 14 13 13 17 22 26 27 25 24 24 23 20 21 24 25 25 25 25 24 24 23 21 19 17 18 21 19 17 16 17 18 17 14 13
0 0 0 0 0 0 1 1 1 3 5 8 12 15 15 13 13 16 19 24 26 27 25 25 25 22 18 22 29 28 27 27 26 25 26 27 25 22 19 23 29 29 26 24 22 21 18 16 15
0 0 1 1 1 2 2 1 2 4 7 11 14 16 16 14 12 14 20 25 28 27 25 24 26 25 23 27 32 32 31 32 29 27 28 29 28 26 26 29 34 35 32 29 26 25 24 20 18
0 0 0 1 2 3 2 2 5 8 10 12 15 17 17 15 13 14 20 27 31 29 25 25 28 30 32 33 33 30 31 33 32 31 31 31 32 32 32 33 36 37 35 32 30 31 30 26 23
0 0 0 1 1 1 1 2 6 9 10 10 13 15 15 14 14 16 22 28 33 32 29 29 32 36 39 37 33 29 28 30 33 36 36 35 37 37 35 36 37 35 34 34 33 32 30 28 26
0 0 0 1 0 0 0 1 4 5 6 7 10 11 11 11 13 17 23 28 31 33 34 34 36 40 42 41 36 31 28 28 32 38 40 39 38 38 38 39 37 34 32 33 33 30 27 26 25
1 0 0 0 0 0 0 1 2 3 4 6 8 9 10 11 13 19 25 27 28 31 34 34 35 39 43 44 39 32 28 28 30 35 39 38 37 38 39 39 36 31 29 30 30 28 24 22 22
1 0 0 0 0 0 0 1 3 3 4 5 5 6 10 13 17 21 25 25 24 27 32 33 33 36 42 45 42 33 29 28 29 32 36 36 35 36 38 37 33 28 26 26 26 24 21 20 19
1 0 0 0 0 0 0 1 3 4 3 2 2 4 10 17 21 22 22 22 22 26 31 33 34 36 40 44 42 37 33 31 29 30 34 34 33 33 33 33 30 27 25 24 23 21 20 18 18
0 0 0 0 0 0 0 1 2 3 2 2 2 4 9 17 21 21 21 22 24 29 32 33 36 39 40 41 40 38 37 33 29 28 32 33 31 30 29 29 28 27 25 24 22 22 20 18 17
0 0 0 0 1 1 1 1 1 1 2 3 4 6 10 15 20 22 22 24 28 33 35 36 39 42 42 39 36 36 36 33 29 28 30 30 28 27 27 27 27 26 24 23 23 21 18 16 15
0 0 0 1 2 2 2 1 1 2 3 4 5 8 13 17 22 25 25 26 29 33 36 38 40 42 42 37 32 31 32 31 30 31 30 27 25 24 25 26 25 24 23 23 22 20 15 12 13
0 0 0 1 1 1 1 1 3 5 6 6 6 10 16 22 25 28 29 27 28 30 31 33 36 39 38 33 27 24 26 28 29 30 27 24 21 21 23 22 21 21 21 22 21 18 13 10 9
0 0 0 0 0 0 0 1 5 8 9 7 6 11 18 24 26 29 31 29 27 26 27 29 33 35 32 26 21 20 21 22 23 23 22 19 17 18 20 20 18 19 20 20 18 16 13 9 6
0 0 0 0 0 0 0 1 5 8 8 7 6 10 18 23 25 28 29 28 26 25 25 27 30 30 26 21 19 19 19 18 18 18 17 15 14 15 16 18 18 18 19 17 15 14 11 8 6
0 0 0 0 0 0 0 2 5 7 7 7 8 11 17 21 24 25 26 26 25 23 21 23 26 25 21 17 17 18 18 16 15 15 15 13 12 12 14 16 17 16 14 12 11 10 9 7 6
0 0 0 0 0 0 0 3 7 8 9 10 12 15 18 20 23 25 23 23 22 20 19 19 21 21 20 17 15 15 15 14 13 14 14 14 13 13 14 16 16 13 10 8 8 7 7 7 7
0 0 0 0 0 0 1 5 10 12 13 13 16 20 21 21 22 23 21 20 21 20 18 17 18 19 19 15 13 12 13 11 11 13 15 14 14 14 15 16 14 11 8 7 7 7 7 7 7
0 0 0 0 0 1 2 6 11 13 13 13 16 20 20 19 19 18 17 17 19 19 17 15 16 17 15 12 9 10 10 10 11 14 15 14 13 13 14 14 12 10 8 7 8 7 6 7 8
0 0 0 0 0 0 1 5 10 12 11 11 14 15 14 13 13 12 12 13 15 15 14 12 12 13 12 10 8 8 8 9 12 14 14 12 11 11 10 9 8 8 7 8 8 7 7 8 8
0 0 0 0 0 0 0 4 9 10 10 11 12 13 12 9 7 7 8 9 10 10 9 8 8 9 9 9 9 7 7 8 10 11 11 11 10 9 8 7 6 6 7 8 8 7 8 8 7
0 0 0 0 0 0 1 5 9 11 11 11 11 13 12 9 6 6 6 7 7 7 6 6 6 6 8 9 9 7 7 8 8 7 8 9 9 9 7 6 6 6 7 8 8 7 7 7 5

GEFSSGP_con_probscp_228.txt.gz
Probability
0 0 0 0 0 0 0 0 0 0 1 4 5 7 10 10 6 3 2 2 3 2 5 15 25 27 27 23 18 14 14 13 13 13 12 12 14 16 16 15 12 9 7 4 1 1 4 6 6
0 0 0 0 0 0 0 0 0 0 2 6 8 8 10 10 7 3 2 4 5 4 6 14 24 27 26 24 21 18 18 17 16 14 13 14 15 15 15 14 12 8 6 4 2 3 5 7 7
0 0 0 0 0 0 0 0 0 1 4 9 12 11 11 9 5 2 4 8 10 8 9 15 25 28 25 24 23 22 21 21 19 17 15 15 15 14 13 13 11 8 5 5 5 5 7 8 9
0 0 0 0 0 0 0 0 0 1 5 11 15 16 14 10 6 7 11 14 14 11 9 15 24 27 25 23 23 23 22 21 21 19 17 17 15 13 11 10 9 8 7 7 7 8 9 9 9
0 0 0 0 0 0 0 0 0 1 5 12 17 19 18 14 14 16 17 16 15 11 10 14 22 26 24 22 22 23 22 20 20 20 20 20 18 15 12 10 9 8 7 7 7 9 10 9 9
0 0 0 0 0 0 0 0 0 1 6 13 17 19 19 20 21 21 20 19 17 15 15 18 21 22 21 20 22 22 22 22 21 22 24 25 23 20 16 12 10 9 8 7 6 7 8 10 10
0 0 0 0 0 0 0 0 2 4 9 13 16 17 19 20 20 20 19 20 19 18 21 23 21 17 16 18 20 22 25 25 24 25 27 29 28 25 20 17 15 13 12 10 7 6 8 10 11
0 0 0 0 0 0 0 1 4 7 10 12 13 15 16 17 19 20 19 18 17 16 20 24 22 17 15 16 18 21 25 27 26 26 28 30 29 25 22 22 21 19 17 15 13 11 11 12 13
0 0 0 0 0 0 1 2 5 10 11 11 13 15 16 17 22 22 19 16 13 11 14 20 21 19 17 16 17 20 22 24 24 25 26 27 27 24 22 22 23 22 20 19 19 18 17 16 16
0 0 0 0 0 0 1 3 6 11 13 13 16 19 19 21 22 20 16 13 12 10 11 14 17 18 17 16 17 19 19 19 20 21 21 22 23 22 20 19 19 20 21 20 21 22 21 19 18
0 0 0 0 0 0 1 4 7 12 15 16 19 22 22 21 19 15 13 12 12 12 11 10 13 15 16 16 16 19 20 18 17 16 16 18 19 19 18 18 17 18 19 19 20 22 22 20 19
0 0 0 0 0 0 2 5 9 13 17 19 20 21 21 19 16 14 14 14 15 15 13 10 10 13 15 16 17 19 21 20 17 15 15 16 16 15 15 15 16 16 17 17 19 22 21 19 19
0 0 0 0 0 0 2 5 8 12 16 19 19 18 17 17 17 17 17 17 16 17 16 13 11 12 13 15 17 17 17 17 16 15 15 15 15 13 13 13 14 14 15 17 18 19 19 17 17
0 0 0 0 1 1 1 4 6 10 13 16 17 15 15 16 19 20 18 16 16 16 15 12 10 11 11 12 13 11 11 12 13 13 13 14 14 12 12 12 13 14 15 16 16 16 16 15 14
0 0 0 0 0 1 2 2 4 7 9 11 13 13 13 15 18 18 15 13 13 12 11 9 8 9 9 8 7 7 8 9 10 10 10 12 13 13 12 12 13 14 14 14 13 13 14 13 11
0 0 0 0 0 0 1 1 3 5 7 8 10 11 11 12 14 14 12 10 10 9 7 7 9 8 7 7 7 7 8 9 9 8 7 9 11 12 13 12 12 12 12 11 10 10 11 11 11
0 0 0 0 0 0 0 0 2 6 8 7 8 10 11 12 11 10 9 8 8 6 5 7 9 9 8 7 8 8 8 9 9 8 7 7 9 11 12 12 12 11 10 9 8 8 9 9 9
0 0 0 0 0 0 0 0 1 5 7 6 7 9 11 11 10 8 7 6 7 7 5 5 7 9 9 8 9 8 7 6 7 7 7 6 7 8 10 11 11 11 11 9 7 7 7 7 7
0 0 0 0 0 0 1 1 2 4 5 6 6 8 9 9 7 7 6 6 7 7 6 4 5 6 7 7 8 7 4 4 5 6 6 5 4 5 8 10 11 11 11 10 7 6 6 5 5
0 0 0 0 0 1 2 3 4 5 6 6 6 8 9 8 7 8 9 10 10 9 7 5 5 5 7 8 7 5 4 3 5 6 6 5 4 4 6 8 10 11 11 9 7 5 4 4 4
0 0 0 0 0 1 2 4 6 6 6 7 7 8 9 9 10 12 14 14 12 11 9 7 6 6 8 8 7 5 5 5 5 6 5 5 5 6 7 8 9 10 10 8 5 4 3 3 2
0 0 0 0 0 0 1 3 5 4 5 7 6 6 7 9 12 14 15 14 11 10 10 8 7 7 7 7 7 7 7 6 5 5 4 4 6 7 7 7 8 9 8 6 4 4 4 3 1
0 0 0 0 0 0 1 2 2 3 4 5 5 5 5 7 10 12 13 11 8 8 8 8 7 6 6 6 7 8 8 7 7 6 5 5 5 6 7 7 7 7 7 6 4 4 4 3 1
0 0 0 0 0 0 0 0 0 2 4 5 4 5 5 6 7 9 9 8 6 6 6 7 5 4 4 4 6 8 9 8 8 7 6 6 6 6 6 6 6 6 6 5 4 3 3 2 1
0 0 0 0 0 0 0 0 0 2 4 5 5 5 4 5 5 5 6 7 6 5 6 6 5 4 3 3 4 6 7 6 6 6 5 5 6 6 6 6 6 5 4 4 4 3 3 2 1
0 0 0 0 0 0 0 0 1 2 4 4 5 5 4 3 4 4 5 6 6 6 6 6 6 5 4 3 3 4 4 4 4 4 3 3 5 5 4 5 5 4 3 3 3 3 3 2 1
0 0 0 0 0 0 0 0 1 2 4 4 4 4 3 2 2 2 3 5 6 6 6 6 6 6 5 3 2 4 4 4 3 3 2 2 4 4 3 3 3 3 3 3 3 3 3 3 3
0 0 0 0 0 0 0 1 1 2 3 2 2 1 1 0 0 0 1 2 4 5 6 6 6 6 5 2 2 4 5 4 3 3 2 3 4 3 2 3 3 3 2 2 3 3 3 3 3
0 0 0 0 0 0 1 1 1 1 1 1 0 0 0 0 0 0 0 1 3 4 4 4 5 4 3 2 3 5 5 4 3 3 3 4 4 3 3 3 3 3 2 1 1 2 3 3 3
0 0 0 0 0 0 1 2 1 0 0 0 1 1 1 0 0 0 0 1 3 3 2 2 2 2 1 2 3 4 4 3 3 3 4 4 4 4 3 3 3 3 2 1 0 1 3 3 3

GEFSSGP_con_probscp_234.txt.gz
Probability
0 0 0 0 0 0 0 0 0 0 0 0 0 0 0 0 0 0 0 2 3 4 5 8 7 7 11 14 15 14 16 19 20 20 19 19 18 17 16 14 12 12 12 11 9 6 3 3 3
0 0 0 0 0 0 0 0 0 0 0 0 0 0 0 0 1 1 1 3 4 5 7 10 11 11 12 13 15 14 15 17 19 19 18 17 17 17 16 15 14 12 12 11 9 6 5 4 4
0 0 0 0 0 0 0 0 0 0 0 0 0 0 0 1 2 2 3 4 6 7 9 12 15 16 15 15 16 17 15 16 18 18 17 16 16 17 16 16 15 13 11 10 9 8 6 6 6
0 0 0 0 0 0 0 0 0 0 0 0 1 1 1 2 2 2 4 7 10 10 10 13 18 20 18 17 19 20 19 18 20 19 18 17 18 18 17 16 15 13 9 8 8 8 7 7 7
0 0 0 0 0 0 0 0 0 0 0 1 2 3 3 4 3 3 6 10 13 12 12 14 18 21 20 17 18 21 23 23 21 20 19 19 19 19 18 16 14 12 9 8 7 8 9 10 10
0 0 0 0 0 0 0 0 0 0 2 3 3 4 3 3 4 5 7 11 14 15 14 14 17 20 20 17 17 21 25 25 22 20 20 19 19 19 18 17 15 12 10 9 8 9 11 12 11
0 0 0 0 0 0 0 0 0 1 3 4 3 2 2 4 6 8 8 11 15 17 17 15 16 17 18 19 20 23 25 26 25 24 22 20 19 19 19 19 16 14 13 10 8 9 10 10 8
0 0 0 0 0 0 0 0 0 2 4 5 5 3 4 8 11 11 10 12 16 17 16 15 16 16 17 18 21 23 25 25 25 23 22 19 19 19 20 21 20 18 17 14 11 10 10 9 8
0 0 0 0 0 0 0 0 0 2 5 8 8 7 10 15 16 13 12 12 13 13 12 13 15 16 15 16 18 19 19 20 19 18 18 16 16 18 20 22 22 20 19 18 15 13 12 12 11
0 0 0 0 0 0 0 0 1 3 7 11 13 15 19 22 19 14 10 9 9 8 9 10 12 13 12 12 14 14 14 14 14 15 16 15 15 15 17 20 20 18 17 18 16 13 12 13 14
0 0 0 0 0 0 0 1 2 5 8 11 16 21 25 24 19 13 8 6 5 5 5 6 7 7 8 10 12 13 13 13 14 15 15 14 14 14 15 16 16 14 14 15 15 12 12 12 13
0 0 0 0 0 1 2 2 4 6 8 12 18 23 25 22 17 12 7 4 4 3 3 3 3 3 5 8 11 13 14 14 14 13 12 12 12 12 13 14 13 12 13 13 13 12 11 11 11
0 0 0 0 0 1 2 3 3 5 9 13 18 21 21 18 14 10 6 4 4 4 3 3 3 3 4 6 7 10 12 12 11 9 9 9 9 9 9 10 10 10 11 12 12 11 11 10 10
0 0 0 0 0 1 2 2 1 3 7 12 14 15 15 13 11 9 7 5 5 5 5 4 4 3 3 3 4 5 7 8 8 8 7 7 7 5 5 5 6 7 9 10 10 9 9 9 9
0 0 0 0 0 0 0 0 0 2 6 9 10 9 8 8 8 8 7 7 7 7 7 7 6 4 3 2 1 2 4 5 6 6 6 6 5 4 4 4 4 4 6 7 7 8 7 7 7
0 0 0 0 0 0 0 0 1 3 6 8 8 6 5 5 5 6 6 7 7 7 8 9 8 5 3 1 0 0 2 3 4 4 5 5 5 5 4 4 3 3 4 4 5 6 6 6 6
0 0 0 0 0 0 0 0 2 5 7 8 7 6 5 4 4 4 4 4 5 6 8 9 8 4 1 0 0 0 1 2 3 3 4 4 5 6 5 4 3 3 3 3 4 5 6 6 6
0 0 0 0 0 0 0 0 2 5 8 8 8 8 7 5 4 3 3 3 4 5 6 6 5 3 1 0 0 0 1 2 2 2 3 4 5 6 5 4 3 3 3 3 3 4 5 6 6
0 0 0 0 0 0 0 0 1 4 7 8 8 8 8 6 4 4 4 4 5 5 4 4 3 1 0 0 0 0 0 1 1 1 3 4 5 5 4 3 3 3 3 3 3 3 4 5 6
0 0 0 0 0 0 0 1 2 3 4 4 5 5 5 4 4 5 6 6 6 5 4 3 2 0 0 0 1 1 1 0 0 1 2 4 5 4 3 3 3 3 3 3 3 3 3 4 6
0 0 0 0 0 0 0 1 2 2 1 1 1 1 2 2 4 6 6 5 5 5 4 3 2 1 0 1 2 3 3 2 2 1 1 2 4 5 3 2 2 3 3 3 3 3 3 4 5
0 0 0 0 0 0 0 1 1 1 0 0 0 1 1 2 4 6 5 4 5 5 4 3 2 1 0 1 3 4 4 4 3 2 1 0 2 3 3 2 2 3 3 4 4 4 3 4 4
0 0 0 0 0 0 0 0 0 0 0 0 0 1 2 3 4 5 4 4 4 4 3 2 1 0 1 2 3 3 4 4 3 2 1 0 0 1 1 1 2 2 3 4 4 4 4 4 4
0 0 0 0 0 0 0 0 0 0 0 0 0 1 1 2 3 4 4 3 2 2 2 1 0 1 2 3 3 3 3 3 3 2 1 0 0 0 0 0 1 1 1 1 2 3 4 4 4
0 0 0 0 0 0 0 0 0 0 0 0 0 0 0 1 2 3 4 3 1 1 1 0 0 1 2 2 2 2 1 2 3 2 1 0 0 0 0 1 1 1 0 0 0 1 3 3 3
0 0 0 0 0 0 0 0 0 0 0 0 0 1 0 0 1 3 4 3 2 1 1 1 1 0 1 1 1 1 1 2 3 2 1 0 0 0 0 1 2 1 0 0 0 0 1 2 3
0 0 0 0 0 0 0 0 0 0 0 0 1 1 0 0 0 1 1 1 1 2 2 2 2 1 0 0 0 0 0 1 3 2 1 0 0 0 0 1 2 2 0 0 0 0 1 1 1
0 0 0 0 0 0 0 0 0 0 0 1 2 2 1 0 0 0 0 0 0 1 2 3 2 1 0 0 0 0 0 1 2 2 1 0 0 0 0 1 2 1 0 0 0 0 0 0 0
0 0 0 0 0 0 0 0 0 0 0 1 2 3 2 1 0 0 0 0 0 0 1 2 1 0 0 0 0 0 0 1 3 2 1 0 0 0 0 1 1 0 1 1 1 0 0 0 0
0 0 0 0 0 0 0 0 0 0 0 0 1 3 2 1 0 0 0 0 0 0 0 1 0 0 0 0 0 0 1 2 3 2 1 0 0 0 0 0 0 1 2 2 2 1 0 0 0

GEFSSGP_con_probscp_240.txt.gz
Probability
0 0 0 0 0 0 0 0 0 0 0 0 0 0 0 0 0 1 4 6 6 6 8 10 11 12 10 8 9 12 13 14 18 19 18 16 15 13 12 12 10 9 9 9 8 8 9 9 8
0 0 0 0 0 0 0 0 0 0 0 0 0 0 0 0 0 1 4 7 7 7 9 11 13 13 10 7 9 13 14 14 16 17 18 18 16 15 14 13 11 9 9 9 10 10 10 10 10
0 0 0 0 0 0 0 0 0 0 0 0 0 0 0 0 1 2 6 9 9 9 10 13 15 14 10 8 9 12 14 14 15 16 18 19 18 16 15 14 12 10 9 9 10 11 11 12 12
0 0 0 0 0 0 0 0 0 0 0 0 0 0 1 1 1 3 7 10 11 10 11 13 15 13 11 9 10 12 13 14 16 18 19 19 17 15 14 13 12 11 9 9 10 11 12 13 13
0 0 0 0 0 0 0 0 0 0 0 0 0 1 2 1 2 5 9 11 11 11 11 14 15 13 12 12 13 14 15 16 18 20 21 19 16 14 12 10 11 12 12 11 12 13 13 13 13
0 0 0 0 0 0 0 0 0 0 0 1 1 1 2 2 3 6 10 12 11 10 12 14 15 15 15 15 15 16 18 19 21 22 22 20 17 15 12 9 9 11 13 14 16 15 14 13 13
0 0 0 0 0 0 0 0 0 0 0 0 0 1 1 4 6 8 11 12 11 11 12 13 14 15 16 17 16 16 19 21 22 22 21 19 17 16 14 11 10 12 15 16 17 16 14 13 13
0 0 0 0 0 0 0 0 0 0 0 0 0 0 3 8 12 12 12 12 11 11 11 12 12 12 14 16 18 18 19 20 20 19 17 16 16 16 15 14 14 16 17 18 18 16 15 14 13
0 0 0 0 0 0 0 0 0 0 0 0 1 2 6 14 18 16 13 13 13 13 11 11 11 10 11 15 18 18 18 19 18 17 17 16 16 15 15 15 16 16 17 19 19 18 17 16 15
0 0 0 0 0 0 0 0 0 0 0 0 2 5 10 17 21 18 15 14 15 15 13 11 10 10 11 15 18 18 18 18 18 18 20 19 18 16 15 15 15 13 14 17 18 18 17 16 16
0 0 0 0 0 0 0 0 0 0 0 1 3 7 13 18 20 19 17 15 14 15 14 12 10 11 13 16 19 19 19 20 19 20 22 21 19 17 16 15 13 10 10 12 14 14 14 13 13
0 0 0 0 0 0 0 0 0 0 2 3 6 10 15 18 19 20 19 16 14 14 13 11 11 13 16 17 19 19 20 20 20 20 21 20 18 17 15 13 10 8 8 9 10 11 12 11 10
0 0 0 0 0 0 0 0 0 1 4 7 8 10 13 15 16 18 18 15 13 12 11 11 12 15 17 18 18 16 15 16 17 18 17 16 16 16 14 11 8 7 7 7 8 9 9 9 7
0 0 0 0 0 0 0 0 0 1 5 7 7 7 9 11 13 15 15 13 11 9 9 10 12 15 17 19 17 12 9 11 13 14 13 13 14 14 13 11 8 7 6 7 7 7 7 7 6
0 0 0 0 0 0 0 0 0 1 3 5 4 5 7 10 12 13 13 11 8 6 7 9 11 14 17 19 16 11 8 9 11 11 10 11 12 12 12 12 9 6 6 6 6 6 6 6 6
0 0 0 0 0 0 0 0 0 1 2 2 2 4 7 10 11 11 10 9 8 7 7 8 10 12 16 18 16 12 9 9 10 9 8 9 10 10 11 11 8 6 5 5 5 4 4 4 4
0 0 0 0 0 0 0 0 1 2 2 2 2 3 6 9 9 9 7 7 8 7 7 8 10 11 14 16 15 12 9 8 8 7 7 7 7 7 8 8 6 5 6 6 5 4 3 3 3
0 0 0 0 0 0 0 0 2 3 3 3 3 4 6 7 8 9 8 7 7 8 9 10 10 12 13 13 12 11 8 6 6 6 6 5 5 5 6 6 5 5 6 7 6 5 4 3 3
0 0 0 0 0 0 0 1 2 3 3 4 4 4 5 6 7 9 10 9 8 9 12 12 11 12 12 12 13 13 10 7 5 5 5 4 4 4 6 6 6 5 6 7 7 5 4 3 3
0 0 0 0 0 0 0 1 2 3 3 3 3 4 4 4 5 7 10 9 8 11 13 13 13 13 13 14 17 17 15 11 6 4 4 4 3 4 6 7 7 6 6 7 8 7 5 4 3
0 0 0 0 0 0 0 1 2 3 3 4 4 3 3 3 4 7 8 7 7 10 13 14 15 15 16 16 18 19 18 14 8 5 4 4 3 4 7 8 8 7 6 7 8 8 6 4 3
0 0 0 0 0 0 0 1 1 2 2 4 5 3 2 2 4 5 5 4 4 7 11 13 15 17 18 17 17 18 18 14 9 6 5 5 5 6 9 10 10 8 7 8 9 8 6 4 4
0 0 0 0 0 0 0 0 0 0 1 3 5 4 3 4 4 4 3 3 4 6 8 10 12 16 18 18 17 17 15 12 8 6 7 6 5 6 10 12 11 10 9 9 9 7 5 4 3
0 0 0 0 0 0 0 0 0 0 0 1 4 6 6 5 4 4 4 6 7 7 8 8 10 13 16 17 17 15 13 11 8 7 6 5 5 6 8 10 12 12 10 9 8 7 5 3 2
0 0 0 0 0 0 0 0 0 0 0 1 3 5 6 6 6 6 6 7 7 8 8 9 10 11 13 15 15 14 14 12 9 7 6 5 6 6 6 7 10 10 9 7 6 6 5 4 3
0 0 0 0 0 0 0 0 1 0 0 0 1 2 4 6 7 7 6 6 7 8 8 9 9 10 11 12 13 13 14 12 9 8 7 6 6 5 4 5 6 6 4 4 5 6 6 5 4
0 0 0 0 0 0 0 0 0 0 0 0 1 3 5 7 7 7 6 6 7 8 8 7 7 8 9 11 11 11 12 11 9 8 7 5 5 4 3 2 3 3 2 2 4 5 5 4 4
0 0 0 0 0 0 0 0 1 1 0 1 3 5 7 8 7 6 6 7 7 7 7 6 6 6 8 10 9 8 8 8 7 5 4 4 4 3 2 1 1 3 3 3 3 4 4 3 3
0 0 0 0 0 0 0 0 1 1 1 2 5 7 8 9 8 7 6 6 6 6 5 5 4 4 5 6 6 4 4 4 4 3 3 3 3 3 2 1 1 2 2 2 2 3 3 3 3
0 0 0 0 0 0 0 0 1 1 2 4 6 7 7 9 9 7 5 4 5 5 5 4 4 3 4 4 4 2 1 1 2 3 3 3 3 3 2 1 0 1 1 1 1 2 3 3 3

GEFSSGP_con_probscp_246.txt.gz
Probability
0 0 0 1 2 2 1 0 0 0 1 2 2 3 3 3 5 9 11 17 25 25 21 22 25 22 17 11 8 6 4 4 6 6 4 4 6 9 10 9 8 8 10 12 13 13 12 11 11
0 0 0 1 1 1 0 0 0 1 2 2 3 5 5 5 7 11 16 20 23 23 22 24 25 23 17 12 9 8 6 5 6 7 6 6 7 9 9 9 9 8 8 9 11 11 11 12 13
0 0 0 0 0 0 0 0 0 1 1 2 3 6 7 7 9 14 18 20 21 22 25 28 26 20 15 12 11 10 9 8 7 8 9 9 8 8 8 9 9 8 8 8 9 9 9 11 13
0 0 0 0 0 0 0 0 0 0 0 1 2 6 9 9 11 13 14 17 21 24 26 27 25 19 15 13 13 12 11 10 10 11 12 12 11 9 8 7 7 8 8 9 9 9 9 10 11
0 0 0 0 0 0 0 0 0 0 0 1 2 5 9 11 11 11 12 16 22 26 26 24 24 23 19 17 17 16 13 12 14 15 15 15 14 12 7 5 5 6 7 8 10 11 13 13 12
0 0 0 0 0 0 0 0 0 0 1 2 3 6 9 12 12 11 12 16 21 26 27 26 25 26 25 23 22 20 18 17 18 19 19 18 16 12 8 5 5 6 6 6 9 13 16 16 15
0 0 0 0 0 0 0 0 0 0 2 3 3 6 11 14 13 11 12 16 19 22 24 23 22 24 26 25 24 24 24 23 23 23 23 22 18 13 10 9 8 9 8 7 8 12 14 16 16
0 0 0 0 0 0 0 0 0 0 1 1 2 7 13 15 11 9 12 15 18 18 16 16 16 18 20 22 24 25 26 27 26 27 27 25 20 15 13 12 13 13 12 12 11 11 13 14 15
0 0 0 0 0 0 0 0 0 0 0 1 3 10 15 13 9 9 12 16 18 16 12 12 14 16 16 18 23 26 26 26 26 27 28 26 22 18 15 14 16 16 15 14 13 13 14 14 13
0 0 0 0 0 0 1 1 0 0 0 2 7 13 15 11 8 11 15 17 18 17 15 16 18 18 18 18 22 24 24 25 26 26 27 26 23 21 19 18 19 18 15 13 13 13 14 14 13
0 0 0 0 0 0 1 1 0 0 0 3 9 13 13 12 13 16 19 20 20 19 19 21 23 23 23 21 20 20 23 26 26 25 26 25 24 23 23 22 22 19 16 14 13 12 11 10 9
0 0 0 1 1 1 1 1 0 0 1 5 9 12 13 15 19 23 26 25 22 20 22 25 28 29 29 26 23 21 24 26 27 26 26 25 23 22 23 24 22 19 17 16 14 10 7 5 3
1 0 0 0 1 1 1 1 0 1 3 5 9 14 16 18 22 27 30 28 24 21 23 27 31 34 35 32 27 26 27 28 27 26 26 25 22 21 22 23 20 17 14 14 12 7 4 3 2
1 0 0 0 1 1 1 0 1 2 4 6 10 15 17 18 21 25 29 28 25 23 25 27 31 35 37 33 30 28 29 29 28 26 25 23 21 20 20 20 19 16 13 11 9 7 5 4 3
1 1 0 1 1 1 0 0 2 4 5 6 9 13 16 17 19 23 26 27 25 24 25 26 29 33 36 33 30 27 26 27 28 28 26 23 21 20 19 19 18 17 15 13 11 9 7 6 4
1 1 1 2 1 0 0 1 3 5 5 5 7 11 15 17 18 20 22 25 25 23 23 25 28 32 34 31 29 26 24 24 27 30 28 25 23 22 20 20 19 17 15 14 13 11 9 7 5
0 1 2 2 1 0 0 1 4 6 6 5 6 9 13 16 17 17 19 23 25 23 24 28 32 34 31 28 27 26 24 23 25 27 27 25 23 22 21 21 19 16 14 14 13 12 10 7 6
0 0 1 1 0 0 0 1 3 6 6 5 7 10 14 17 18 18 20 24 27 27 29 32 34 35 31 26 25 25 23 22 22 22 22 22 20 20 20 21 18 16 15 15 14 12 10 9 8
0 0 0 0 0 0 0 1 3 5 6 6 7 10 14 17 20 22 23 26 30 33 34 34 34 35 31 27 27 28 25 22 19 17 17 19 19 18 19 19 18 16 16 14 13 11 9 9 9
0 0 0 0 0 0 0 1 3 4 6 6 6 8 11 17 23 27 27 27 31 35 35 33 33 34 33 31 33 34 30 24 17 14 15 17 18 16 16 17 16 16 15 13 12 11 9 8 8
0 0 0 0 0 0 0 1 3 4 5 5 5 5 7 15 24 28 28 28 30 34 35 33 34 35 35 35 36 35 31 24 18 16 17 17 15 14 14 15 14 14 14 13 12 11 8 6 5
0 0 0 0 0 0 0 1 2 5 5 5 5 5 6 12 21 25 25 26 30 34 36 36 35 36 34 33 33 31 28 24 21 19 18 16 15 13 13 13 13 13 12 11 9 8 6 4 3
0 0 0 0 0 0 0 0 1 3 4 5 5 5 7 12 17 19 20 23 29 33 36 37 36 34 31 29 29 28 25 24 23 22 19 16 15 14 12 13 13 13 12 9 6 5 4 4 4
0 0 0 0 0 0 0 0 0 1 2 2 3 5 9 13 15 15 16 21 26 31 33 33 33 31 28 26 25 24 23 23 23 22 19 16 15 13 12 13 13 13 12 10 7 5 4 4 5
0 0 0 0 0 0 0 1 1 1 1 1 2 5 9 12 14 14 15 20 26 30 30 28 27 27 25 23 21 20 20 21 21 19 17 15 14 13 13 12 13 13 12 11 8 6 5 5 6
0 0 0 0 0 0 1 2 3 3 3 3 3 6 9 11 12 13 16 21 26 29 28 25 23 23 23 22 20 19 18 17 16 16 15 14 13 13 12 13 13 13 12 11 9 7 6 6 6
0 0 0 1 0 0 1 3 5 6 5 5 4 6 10 12 12 14 18 24 27 28 27 25 23 21 22 22 21 19 17 15 13 13 13 13 12 11 12 12 12 13 12 11 10 8 7 7 7
0 0 0 1 1 0 0 2 5 6 6 5 4 7 11 14 14 16 21 26 28 27 26 25 23 19 18 18 17 16 15 13 11 10 10 11 10 10 10 10 10 11 11 11 10 8 7 8 8
0 0 0 0 1 1 1 2 3 5 6 6 6 8 13 16 17 20 23 25 25 23 20 19 18 15 12 12 12 13 12 11 9 7 8 9 9 8 8 7 7 8 9 9 9 7 7 7 7
0 0 0 0 1 1 2 2 3 5 7 8 8 10 15 17 18 21 23 23 22 18 14 13 13 12 9 8 10 11 10 9 7 6 6 8 8 7 5 5 4 5 7 8 7 6 4 5 5

GEFSSGP_con_probscp_252.txt.gz
Probability
0 0 0 0 0 0 0 0 0 0 1 0 1 3 5 6 5 3 4 5 7 9 10 13 19 24 24 21 18 17 16 16 16 17 17 16 15 13 11 12 13 11 11 10 10 10 10 10 11
0 0 0 0 0 0 0 0 0 0 1 1 2 4 6 8 7 6 6 8 10 10 9 12 19 24 23 20 18 17 16 16 17 18 18 18 16 14 12 12 12 13 13 12 11 10 10 11 11
0 0 0 0 0 0 0 0 0 0 0 1 3 5 7 10 9 8 9 11 12 11 10 14 21 24 21 17 16 17 18 19 19 19 20 19 17 14 13 12 11 12 14 14 12 11 11 11 11
0 0 0 0 0 0 0 0 0 0 1 3 6 9 10 10 9 10 12 12 11 11 12 17 24 25 21 17 15 17 20 23 22 20 20 19 17 15 14 13 13 12 13 13 12 11 11 11 12
0 0 0 0 0 0 0 0 0 1 2 5 10 13 12 11 11 12 13 13 12 12 14 18 24 27 23 19 17 18 21 23 22 19 19 20 20 18 17 16 15 13 12 11 10 9 9 10 12
0 0 0 0 0 0 0 0 0 1 3 6 11 15 13 12 13 13 14 15 15 14 15 16 20 23 23 21 19 19 22 23 21 18 18 19 20 20 18 18 16 13 10 8 8 8 9 11 12
0 0 0 0 0 0 0 0 0 2 4 6 10 13 13 11 12 12 15 18 18 16 14 13 13 16 19 20 20 23 25 26 23 21 21 20 20 19 18 17 15 11 8 7 6 7 9 11 12
0 0 0 0 0 0 0 1 1 2 4 6 10 13 13 11 11 13 17 20 18 15 12 11 10 10 13 16 19 23 27 26 24 24 24 22 20 18 16 15 15 13 9 6 5 7 9 10 10
0 0 0 0 0 0 1 2 2 3 5 7 10 14 13 12 12 15 19 18 15 12 11 11 9 8 10 13 16 21 23 24 22 23 24 23 21 19 16 15 14 13 10 6 6 7 9 10 9
0 0 1 1 0 0 1 3 3 4 5 6 9 11 11 11 12 15 17 15 12 11 11 10 8 6 9 13 17 19 21 20 21 21 22 22 21 19 17 15 14 13 10 8 8 9 10 10 10
0 1 2 1 0 0 1 3 3 4 4 5 6 8 9 10 10 11 13 12 10 9 9 8 6 6 9 13 16 18 19 18 18 19 18 18 19 18 17 16 16 14 12 11 11 11 11 9 7
0 1 2 2 1 0 1 2 4 5 5 6 7 9 9 10 9 9 10 10 9 9 8 8 8 8 9 10 12 14 15 15 14 13 13 14 16 16 17 17 17 17 16 14 13 11 9 6 4
0 0 1 2 2 1 0 1 3 6 8 9 10 11 10 9 9 9 9 10 11 12 11 12 12 11 9 9 9 10 11 11 9 8 9 11 14 15 16 16 16 17 17 16 12 9 6 5 3
0 0 1 2 2 1 1 1 2 5 9 11 12 11 10 9 8 9 10 11 14 16 16 16 15 13 10 8 7 8 8 7 6 6 7 8 11 13 14 13 12 13 14 13 11 7 4 4 4
0 0 1 1 1 0 1 1 1 3 7 11 12 11 10 9 10 11 12 14 16 17 18 18 15 12 9 8 7 6 6 6 7 7 6 6 8 10 11 10 10 9 9 8 7 5 3 3 3
0 0 0 0 0 0 0 0 0 1 5 8 10 10 10 10 11 12 14 16 16 17 18 18 15 11 9 8 7 6 6 7 7 7 5 5 6 7 8 9 9 8 7 5 4 3 3 3 3
0 0 0 0 0 0 0 0 1 1 4 7 9 10 10 10 11 13 16 17 16 16 17 17 14 11 8 7 6 6 6 6 6 6 4 4 5 5 7 8 9 8 6 4 3 3 3 3 3
0 0 0 0 0 0 0 1 2 3 4 6 9 10 10 11 13 15 16 17 16 15 14 13 13 12 9 6 6 6 5 5 5 6 5 5 5 5 6 8 9 8 6 4 3 3 4 3 3
0 0 0 0 0 0 0 1 3 4 4 6 9 10 11 13 15 17 17 18 17 14 12 11 11 11 8 6 6 6 5 4 5 5 5 5 5 5 6 8 8 8 6 4 3 4 4 4 3
0 0 0 0 0 0 1 2 3 4 5 5 7 9 12 14 16 17 19 20 19 16 12 10 10 9 7 6 5 5 4 4 3 3 3 3 3 4 5 6 6 6 7 6 4 4 4 3 3
0 0 0 0 0 0 2 3 3 4 4 4 5 8 12 15 17 18 20 21 19 15 11 10 9 7 6 6 5 5 3 2 1 1 1 1 1 2 3 4 3 4 5 5 5 4 3 3 3
0 0 0 0 0 0 1 2 3 2 3 4 5 7 11 14 16 16 17 17 15 11 9 8 7 6 6 6 7 5 3 1 0 0 0 0 0 1 1 1 1 2 3 3 4 4 4 3 3
0 0 0 0 0 0 1 1 1 1 1 3 4 6 9 11 12 11 11 11 11 10 8 6 5 5 5 5 6 5 2 1 1 1 1 1 0 0 0 0 0 1 1 1 2 3 3 3 3
0 0 0 0 0 0 0 0 0 0 0 1 2 4 7 8 9 8 8 8 10 11 9 7 5 5 5 6 6 6 4 3 3 3 2 2 1 1 1 1 1 0 0 0 1 1 2 2 2
0 0 0 0 0 0 0 0 0 0 0 0 1 3 6 8 8 8 7 7 9 11 10 8 8 7 9 10 11 10 7 6 5 4 4 3 3 2 2 2 2 1 1 0 0 0 1 1 1
0 0 0 0 0 0 0 0 0 0 0 1 2 4 5 6 8 8 7 6 8 10 10 10 10 10 11 12 12 11 8 6 5 4 4 4 3 3 3 3 3 3 2 1 0 0 0 0 0
0 0 0 0 0 0 0 0 0 0 0 1 2 3 3 3 5 6 6 6 8 9 9 10 10 10 10 10 9 8 6 5 4 4 4 3 3 3 3 3 3 3 3 2 1 0 1 0 0
0 0 0 0 0 0 0 0 0 0 0 1 1 1 1 2 3 5 7 8 8 8 8 9 8 8 7 7 7 6 5 4 3 3 3 3 3 3 3 3 3 3 3 2 1 0 0 0 0
0 0 0 0 0 0 0 0 0 0 0 1 1 1 2 3 5 8 10 10 8 7 7 7 7 6 6 6 6 5 4 3 3 3 3 3 3 3 3 3 3 3 3 3 1 0 0 0 0
0 0 0 0 0 0 0 0 0 0 1 2 2 1 2 4 6 10 12 10 8 6 6 6 6 6 6 6 6 5 4 3 3 3 3 3 3 3 3 3 3 3 3 3 2 1 0 0 0

GEFSSGP_con_probscp_258.txt.gz
Probability
0 0 0 0 0 0 0 0 0 0 1 3 4 3 3 3 3 3 4 6 8 12 15 18 22 25 26 29 31 31 30 32 34 31 28 25 23 19 15 14 12 11 11 13 14 16 17 16 13
0 0 0 0 0 0 0 0 0 1 2 3 4 3 3 3 4 5 6 8 10 14 16 19 24 27 28 28 29 28 28 30 31 28 27 25 23 21 18 15 14 13 13 13 13 14 16 16 14
0 0 0 0 0 0 0 0 1 2 3 3 4 3 3 4 5 7 10 11 13 15 16 19 24 27 28 26 25 25 26 26 25 24 23 24 23 22 21 19 17 16 15 13 12 13 15 15 12
0 0 0 0 0 0 0 0 1 2 3 3 3 4 4 4 6 9 14 15 15 14 15 17 21 25 25 24 25 27 28 26 23 20 20 20 20 20 21 21 19 18 17 14 12 13 14 13 11
0 0 0 0 0 0 0 0 1 1 2 4 5 6 6 6 7 11 14 15 14 14 13 14 18 22 22 23 26 28 30 29 25 21 19 18 18 18 19 19 19 19 18 16 14 13 13 12 12
0 0 0 0 0 0 0 0 0 0 2 5 7 9 9 8 8 10 11 12 11 12 12 13 15 17 19 22 25 26 28 29 28 25 21 18 18 18 17 18 18 19 18 17 16 14 13 13 12
0 0 0 0 0 0 0 0 1 1 3 6 9 11 10 9 9 9 10 10 9 10 12 12 12 13 16 19 22 22 24 26 29 28 24 21 20 19 18 18 18 19 19 18 17 15 14 13 11
0 0 0 0 0 0 0 1 2 2 2 5 9 11 12 13 12 10 10 10 9 9 12 12 11 11 13 15 17 19 20 22 25 27 26 23 21 19 18 17 18 18 18 17 17 15 14 13 12
0 0 0 0 0 0 1 2 2 1 2 4 9 12 15 17 16 13 11 9 8 8 10 10 10 10 11 12 14 16 17 18 20 23 24 22 20 19 18 17 18 19 18 16 16 16 16 15 13
0 0 0 0 0 0 1 2 2 1 2 4 7 12 17 19 18 14 10 7 6 7 8 8 8 10 11 11 12 14 14 15 16 19 20 20 19 19 19 19 20 21 20 19 19 19 18 15 13
0 0 0 0 0 0 1 1 1 1 1 3 5 9 14 16 15 13 10 6 5 6 7 7 7 9 10 9 9 11 12 12 14 16 17 17 16 18 20 21 22 22 22 23 22 22 19 15 12
0 0 0 0 0 0 0 0 0 0 0 2 4 7 10 11 10 10 8 5 4 5 5 6 7 8 7 6 7 8 10 10 12 13 14 13 12 14 18 20 22 23 23 23 22 20 18 14 11
0 0 0 0 0 0 0 0 0 0 0 2 6 8 8 8 7 7 6 5 4 4 5 7 8 6 5 5 6 7 8 9 10 11 11 11 10 10 12 15 19 21 21 20 18 17 16 13 12
0 0 1 1 0 0 0 0 0 1 2 5 9 10 9 8 7 6 5 5 5 4 5 7 8 6 5 5 6 7 8 9 9 10 10 9 8 7 8 11 15 18 19 17 15 15 15 14 12
0 1 1 1 0 0 0 0 1 2 5 8 11 11 10 8 8 6 5 5 5 5 5 6 6 6 6 6 7 9 9 9 9 9 9 9 7 5 5 7 11 15 17 16 14 13 15 15 14
1 1 1 0 0 0 0 0 1 3 6 9 10 10 9 8 7 5 5 5 6 7 6 5 5 5 5 5 6 9 9 8 7 8 8 8 6 4 3 5 8 12 14 14 14 14 14 13 12
0 0 0 0 0 0 0 0 1 3 5 8 8 7 8 7 6 4 4 6 8 8 7 5 4 4 5 5 5 5 6 5 5 5 6 6 4 3 3 4 6 9 11 12 13 13 12 10 7
0 0 0 0 0 0 0 0 1 2 4 6 7 6 6 6 5 4 5 8 10 9 7 5 4 4 5 5 4 2 2 2 2 2 3 3 2 3 3 4 5 7 9 9 9 8 7 5 4
0 0 1 1 0 0 0 0 1 2 3 5 7 6 4 3 4 6 9 10 10 8 7 6 5 4 4 4 3 1 0 0 0 0 1 1 1 2 4 5 5 5 6 5 4 4 4 4 3
0 1 2 1 0 0 0 0 1 2 3 4 5 4 2 2 4 7 10 11 9 7 6 7 6 4 3 3 3 1 0 0 0 0 0 0 0 1 3 5 4 3 2 1 1 2 3 3 3
0 1 1 1 0 0 0 0 0 1 2 3 3 2 2 3 4 6 8 9 8 6 6 5 4 3 3 3 3 2 1 0 0 0 0 1 1 1 3 4 4 2 1 0 0 1 3 3 3
0 0 0 0 0 0 0 0 0 0 1 2 1 0 1 4 5 6 7 8 6 5 4 4 3 3 3 4 3 3 1 1 0 0 1 2 2 3 3 3 3 2 1 0 0 1 2 3 3
0 0 0 0 0 0 0 0 0 0 1 1 0 0 1 3 7 8 8 7 6 5 4 3 3 3 4 4 4 3 3 2 1 0 1 3 3 3 3 3 3 3 1 0 0 1 2 3 3
0 0 0 0 0 0 0 0 0 0 0 0 0 0 1 4 8 10 9 8 7 6 5 4 3 3 3 4 3 3 3 3 2 2 2 3 3 3 3 3 3 3 2 1 1 1 2 3 3
0 0 0 0 0 0 0 0 0 0 0 0 0 0 1 4 8 10 9 9 8 7 5 4 3 3 3 3 3 3 3 3 3 3 3 3 3 3 3 3 3 3 3 2 1 1 2 2 2
0 0 0 0 0 0 0 0 0 0 0 0 0 0 1 5 8 9 9 9 9 7 5 3 3 3 3 3 3 3 3 3 3 3 3 3 3 3 3 3 3 3 3 3 2 1 1 1 1
0 0 0 0 0 0 0 0 0 0 0 0 1 1 1 3 6 8 7 7 8 7 4 3 3 3 3 3 4 3 3 3 3 3 3 3 3 3 3 3 3 3 3 3 3 1 0 0 0
0 0 0 0 0 0 0 0 0 0 0 1 2 2 1 2 5 7 6 5 6 6 5 4 3 3 3 4 4 4 3 3 3 3 3 3 3 3 3 3 3 3 3 3 3 2 1 0 0
0 0 0 0 0 0 0 0 0 0 0 1 2 2 1 1 3 6 5 4 4 5 5 5 4 3 3 4 4 4 4 3 3 3 3 3 3 3 3 3 3 3 3 3 3 3 2 1 0
0 0 0 0 0 0 0 0 0 0 0 1 2 1 1 0 1 3 3 3 4 5 5 5 4 3 3 4 5 5 5 4 3 3 3 3 3 3 3 3 3 3 3 3 3 3 3 2 1